Time,TemperatureF,DewpointF,PressureIn,WindDirection,WindDirectionDegrees,WindSpeedMPH,WindSpeedGustMPH,Humidity,HourlyPrecipIn,Conditions,Clouds,dailyrainin,SoftwareType,DateUTC
2013-06-19 00:00:00,69.5,68.3,29.83,NNW,327,0.0,4.0,96,0.01,,---,0.31,VWS V13.01,2013-06-19 04:00:00,
2013-06-19 00:01:00,69.6,68.4,29.83,NNW,328,0.0,4.0,96,0.01,,---,0.31,VWS V13.01,2013-06-19 04:01:00,
2013-06-19 00:02:00,69.6,68.4,29.83,NNW,328,0.0,0.0,96,0.01,,---,0.00,VWS V13.01,2013-06-19 04:02:00,
2013-06-19 00:06:00,69.6,68.4,29.84,NNW,328,4.0,6.0,96,0.00,,---,0.00,VWS V13.01,2013-06-19 04:06:00,
2013-06-19 00:07:00,69.7,68.5,29.83,NNW,327,0.0,6.0,96,0.00,,---,0.00,VWS V13.01,2013-06-19 04:07:00,
2013-06-19 00:11:00,69.7,68.5,29.84,NNW,328,1.0,6.0,96,0.00,,---,0.00,VWS V13.01,2013-06-19 04:11:00,
2013-06-19 00:12:00,69.7,68.8,29.84,NNW,328,1.0,6.0,97,0.00,,---,0.00,VWS V13.01,2013-06-19 04:12:00,
2013-06-19 00:16:00,69.7,68.8,29.84,NNW,328,2.0,6.0,97,0.00,,---,0.00,VWS V13.01,2013-06-19 04:16:00,
2013-06-19 00:17:00,69.7,68.8,29.84,NNW,328,0.0,6.0,97,0.00,,---,0.00,VWS V13.01,2013-06-19 04:17:00,
2013-06-19 00:21:00,69.8,68.9,29.84,NNW,327,0.0,6.0,97,0.00,,---,0.00,VWS V13.01,2013-06-19 04:21:00,
2013-06-19 00:22:00,69.8,68.9,29.84,NNW,328,0.0,6.0,97,0.00,,---,0.00,VWS V13.01,2013-06-19 04:22:00,
2013-06-19 00:26:00,69.8,68.9,29.84,NNW,328,0.0,6.0,97,0.00,,---,0.00,VWS V13.01,2013-06-19 04:26:00,
2013-06-19 00:27:00,69.8,68.9,29.84,NNW,327,0.0,6.0,97,0.00,,---,0.00,VWS V13.01,2013-06-19 04:27:00,
2013-06-19 00:28:00,69.7,68.8,29.84,NNW,328,0.0,6.0,97,0.00,,---,0.00,VWS V13.01,2013-06-19 04:28:00,
2013-06-19 00:31:00,69.7,68.8,29.84,NNW,328,0.0,6.0,97,0.00,,---,0.00,VWS V13.01,2013-06-19 04:31:00,
2013-06-19 00:32:00,69.7,68.8,29.84,NNW,327,0.0,0.0,97,0.00,,---,0.00,VWS V13.01,2013-06-19 04:32:00,
2013-06-19 00:33:00,69.7,68.8,29.84,NNW,327,0.0,0.0,97,0.00,,---,0.00,VWS V13.01,2013-06-19 04:33:00,
2013-06-19 00:36:00,69.7,68.8,29.84,NNW,328,0.0,1.0,97,0.00,,---,0.00,VWS V13.01,2013-06-19 04:36:00,
2013-06-19 00:37:00,69.6,68.7,29.84,NNW,327,0.0,1.0,97,0.00,,---,0.00,VWS V13.01,2013-06-19 04:37:00,
2013-06-19 00:38:00,69.6,68.7,29.84,NNW,327,0.0,1.0,97,0.00,,---,0.00,VWS V13.01,2013-06-19 04:38:00,
2013-06-19 00:41:00,69.6,68.7,29.84,NNW,328,0.0,1.0,97,0.00,,---,0.00,VWS V13.01,2013-06-19 04:41:00,
2013-06-19 00:42:00,69.6,68.7,29.84,NNW,328,0.0,1.0,97,0.00,,---,0.00,VWS V13.01,2013-06-19 04:42:00,
2013-06-19 00:43:00,69.6,68.4,29.84,NNW,328,0.0,1.0,96,0.00,,---,0.00,VWS V13.01,2013-06-19 04:43:00,
2013-06-19 00:46:00,69.5,68.3,29.84,NNW,328,0.0,1.0,96,0.00,,---,0.00,VWS V13.01,2013-06-19 04:46:00,
2013-06-19 00:47:00,69.5,68.3,29.84,NNW,328,0.0,1.0,96,0.00,,---,0.00,VWS V13.01,2013-06-19 04:47:00,
2013-06-19 00:48:00,69.5,68.3,29.84,NNW,327,0.0,1.0,96,0.00,,---,0.00,VWS V13.01,2013-06-19 04:48:00,
2013-06-19 00:52:00,69.4,68.2,29.84,NNW,328,0.0,1.0,96,0.00,,---,0.00,VWS V13.01,2013-06-19 04:52:00,
2013-06-19 00:53:00,69.4,68.2,29.85,NNW,327,0.0,1.0,96,0.00,,---,0.00,VWS V13.01,2013-06-19 04:53:00,
2013-06-19 00:57:00,69.4,68.2,29.85,NNW,328,0.0,1.0,96,0.00,,---,0.00,VWS V13.01,2013-06-19 04:57:00,
2013-06-19 00:58:00,69.4,68.2,29.85,NNW,328,0.0,1.0,96,0.00,,---,0.00,VWS V13.01,2013-06-19 04:58:00,
2013-06-19 01:02:00,69.3,68.4,29.85,NNW,328,0.0,0.0,97,0.00,,---,0.00,VWS V13.01,2013-06-19 05:02:00,
2013-06-19 01:03:00,69.3,68.1,29.85,NNW,328,0.0,0.0,96,0.00,,---,0.00,VWS V13.01,2013-06-19 05:03:00,
2013-06-19 01:07:00,69.2,68.3,29.85,NNW,327,0.0,0.0,97,0.00,,---,0.00,VWS V13.01,2013-06-19 05:07:00,
2013-06-19 01:08:00,69.2,68.3,29.85,NNW,328,0.0,0.0,97,0.00,,---,0.00,VWS V13.01,2013-06-19 05:08:00,
2013-06-19 01:12:00,69.2,68.3,29.85,NNW,328,0.0,0.0,97,0.00,,---,0.00,VWS V13.01,2013-06-19 05:12:00,
2013-06-19 01:13:00,69.1,68.2,29.85,NNW,327,0.0,0.0,97,0.00,,---,0.00,VWS V13.01,2013-06-19 05:13:00,
2013-06-19 01:18:00,69.1,67.9,29.85,NNW,327,0.0,0.0,96,0.00,,---,0.00,VWS V13.01,2013-06-19 05:18:00,
2013-06-19 01:19:00,69.0,67.8,29.85,NNW,327,0.0,0.0,96,0.00,,---,0.00,VWS V13.01,2013-06-19 05:19:00,
2013-06-19 01:23:00,69.0,67.8,29.85,NNW,328,0.0,0.0,96,0.00,,---,0.00,VWS V13.01,2013-06-19 05:23:00,
2013-06-19 01:24:00,69.0,67.8,29.85,NNW,328,0.0,0.0,96,0.00,,---,0.00,VWS V13.01,2013-06-19 05:24:00,
2013-06-19 01:28:00,68.9,67.7,29.85,NNW,328,0.0,0.0,96,0.00,,---,0.00,VWS V13.01,2013-06-19 05:28:00,
2013-06-19 01:29:00,68.9,67.7,29.85,NNW,327,0.0,0.0,96,0.00,,---,0.00,VWS V13.01,2013-06-19 05:29:00,
2013-06-19 01:33:00,68.8,67.6,29.85,NNW,328,0.0,0.0,96,0.00,,---,0.00,VWS V13.01,2013-06-19 05:33:00,
2013-06-19 01:34:00,68.7,67.5,29.85,NNW,328,0.0,0.0,96,0.00,,---,0.00,VWS V13.01,2013-06-19 05:34:00,
2013-06-19 01:38:00,68.7,67.5,29.85,NNW,328,0.0,1.0,96,0.00,,---,0.00,VWS V13.01,2013-06-19 05:38:00,
2013-06-19 01:39:00,68.6,67.4,29.85,NNW,328,0.0,1.0,96,0.00,,---,0.00,VWS V13.01,2013-06-19 05:39:00,
2013-06-19 01:43:00,68.5,67.3,29.85,NNW,328,0.0,1.0,96,0.00,,---,0.00,VWS V13.01,2013-06-19 05:43:00,
2013-06-19 01:44:00,68.5,67.3,29.85,NNW,327,0.0,1.0,96,0.00,,---,0.00,VWS V13.01,2013-06-19 05:44:00,
2013-06-19 01:48:00,68.4,67.2,29.85,NNW,328,0.0,1.0,96,0.00,,---,0.00,VWS V13.01,2013-06-19 05:48:00,
2013-06-19 01:49:00,68.4,67.2,29.85,NNW,328,0.0,1.0,96,0.00,,---,0.00,VWS V13.01,2013-06-19 05:49:00,
2013-06-19 01:50:00,68.4,67.2,29.85,NNW,328,0.0,1.0,96,0.00,,---,0.00,VWS V13.01,2013-06-19 05:50:00,
2013-06-19 01:53:00,68.3,67.1,29.84,NNW,328,0.0,1.0,96,0.00,,---,0.00,VWS V13.01,2013-06-19 05:53:00,
2013-06-19 01:54:00,68.3,67.1,29.84,NNW,327,0.0,1.0,96,0.00,,---,0.00,VWS V13.01,2013-06-19 05:54:00,
2013-06-19 01:55:00,68.3,67.1,29.84,NNW,327,0.0,1.0,96,0.00,,---,0.00,VWS V13.01,2013-06-19 05:55:00,
2013-06-19 01:58:00,68.2,67.0,29.84,NNW,328,0.0,1.0,96,0.00,,---,0.00,VWS V13.01,2013-06-19 05:58:00,
2013-06-19 01:59:00,68.2,67.0,29.84,NNW,328,0.0,1.0,96,0.00,,---,0.00,VWS V13.01,2013-06-19 05:59:00,
2013-06-19 02:00:00,68.2,67.0,29.84,NNW,328,0.0,1.0,96,0.00,,---,0.00,VWS V13.01,2013-06-19 06:00:00,
2013-06-19 02:03:00,68.1,66.9,29.84,NNW,328,0.0,0.0,96,0.00,,---,0.00,VWS V13.01,2013-06-19 06:03:00,
2013-06-19 02:04:00,68.1,66.9,29.84,NNW,328,0.0,0.0,96,0.00,,---,0.00,VWS V13.01,2013-06-19 06:04:00,
2013-06-19 02:05:00,68.1,66.9,29.84,NNW,328,0.0,0.0,96,0.00,,---,0.00,VWS V13.01,2013-06-19 06:05:00,
2013-06-19 02:08:00,68.0,66.8,29.84,NNW,328,0.0,1.0,96,0.00,,---,0.00,VWS V13.01,2013-06-19 06:08:00,
2013-06-19 02:09:00,68.0,66.8,29.84,NNW,328,0.0,1.0,96,0.00,,---,0.00,VWS V13.01,2013-06-19 06:09:00,
2013-06-19 02:10:00,68.0,66.8,29.84,NNW,327,0.0,1.0,96,0.00,,---,0.00,VWS V13.01,2013-06-19 06:10:00,
2013-06-19 02:13:00,67.9,66.7,29.84,NNW,327,0.0,1.0,96,0.00,,---,0.00,VWS V13.01,2013-06-19 06:13:00,
2013-06-19 02:14:00,67.9,66.7,29.84,NNW,327,0.0,1.0,96,0.00,,---,0.00,VWS V13.01,2013-06-19 06:14:00,
2013-06-19 02:15:00,67.9,66.7,29.84,NNW,328,0.0,1.0,96,0.00,,---,0.00,VWS V13.01,2013-06-19 06:15:00,
2013-06-19 02:18:00,67.9,66.7,29.84,NNW,328,0.0,1.0,96,0.00,,---,0.00,VWS V13.01,2013-06-19 06:18:00,
2013-06-19 02:19:00,67.9,66.7,29.84,NNW,328,0.0,1.0,96,0.00,,---,0.00,VWS V13.01,2013-06-19 06:19:00,
2013-06-19 02:20:00,67.9,66.7,29.84,NNW,327,0.0,1.0,96,0.00,,---,0.00,VWS V13.01,2013-06-19 06:20:00,
2013-06-19 02:23:00,67.8,66.6,29.84,NNW,328,0.0,1.0,96,0.00,,---,0.00,VWS V13.01,2013-06-19 06:23:00,
2013-06-19 02:24:00,67.7,66.5,29.84,NNW,327,0.0,1.0,96,0.00,,---,0.00,VWS V13.01,2013-06-19 06:24:00,
2013-06-19 02:25:00,67.7,66.5,29.84,NNW,328,0.0,1.0,96,0.00,,---,0.00,VWS V13.01,2013-06-19 06:25:00,
2013-06-19 02:26:00,67.7,66.5,29.84,NNW,329,0.0,1.0,96,0.00,,---,0.00,VWS V13.01,2013-06-19 06:26:00,
2013-06-19 02:28:00,67.7,66.5,29.84,NNW,329,0.0,1.0,96,0.00,,---,0.00,VWS V13.01,2013-06-19 06:28:00,
2013-06-19 02:29:00,67.6,66.4,29.84,NNW,329,0.0,1.0,96,0.00,,---,0.00,VWS V13.01,2013-06-19 06:29:00,
2013-06-19 02:30:00,67.7,66.5,29.84,NNW,329,0.0,1.0,96,0.00,,---,0.00,VWS V13.01,2013-06-19 06:30:00,
2013-06-19 02:31:00,67.6,66.4,29.84,NNW,329,0.0,1.0,96,0.00,,---,0.00,VWS V13.01,2013-06-19 06:31:00,
2013-06-19 02:33:00,67.6,66.4,29.84,NNW,329,0.0,0.0,96,0.00,,---,0.00,VWS V13.01,2013-06-19 06:33:00,
2013-06-19 02:35:00,67.6,66.4,29.84,NNW,329,0.0,0.0,96,0.00,,---,0.00,VWS V13.01,2013-06-19 06:35:00,
2013-06-19 02:36:00,67.6,66.4,29.84,NNW,329,0.0,0.0,96,0.00,,---,0.00,VWS V13.01,2013-06-19 06:36:00,
2013-06-19 02:38:00,67.5,66.3,29.84,NNW,329,0.0,0.0,96,0.00,,---,0.00,VWS V13.01,2013-06-19 06:38:00,
2013-06-19 02:40:00,67.5,66.3,29.84,NNW,329,0.0,0.0,96,0.00,,---,0.00,VWS V13.01,2013-06-19 06:40:00,
2013-06-19 02:41:00,67.5,66.3,29.84,NNW,329,0.0,0.0,96,0.00,,---,0.00,VWS V13.01,2013-06-19 06:41:00,
2013-06-19 02:44:00,67.4,66.2,29.84,NNW,329,0.0,0.0,96,0.00,,---,0.00,VWS V13.01,2013-06-19 06:44:00,
2013-06-19 02:45:00,67.4,66.2,29.84,NNW,329,0.0,0.0,96,0.00,,---,0.00,VWS V13.01,2013-06-19 06:45:00,
2013-06-19 02:46:00,67.4,66.2,29.84,NNW,329,0.0,0.0,96,0.00,,---,0.00,VWS V13.01,2013-06-19 06:46:00,
2013-06-19 02:49:00,67.3,66.1,29.84,NNW,329,0.0,0.0,96,0.00,,---,0.00,VWS V13.01,2013-06-19 06:49:00,
2013-06-19 02:50:00,67.3,66.1,29.83,NNW,329,0.0,0.0,96,0.00,,---,0.00,VWS V13.01,2013-06-19 06:50:00,
2013-06-19 02:51:00,67.3,66.1,29.83,NNW,329,0.0,0.0,96,0.00,,---,0.00,VWS V13.01,2013-06-19 06:51:00,
2013-06-19 02:54:00,67.2,66.0,29.83,NNW,329,0.0,0.0,96,0.00,,---,0.00,VWS V13.01,2013-06-19 06:54:00,
2013-06-19 02:55:00,67.2,66.0,29.83,NNW,329,0.0,0.0,96,0.00,,---,0.00,VWS V13.01,2013-06-19 06:55:00,
2013-06-19 02:56:00,67.2,66.0,29.83,NNW,329,0.0,0.0,96,0.00,,---,0.00,VWS V13.01,2013-06-19 06:56:00,
2013-06-19 02:59:00,67.2,66.0,29.83,NNW,329,0.0,0.0,96,0.00,,---,0.00,VWS V13.01,2013-06-19 06:59:00,
2013-06-19 03:00:00,67.1,65.9,29.84,NNW,329,0.0,0.0,96,0.00,,---,0.00,VWS V13.01,2013-06-19 07:00:00,
2013-06-19 03:01:00,67.1,65.9,29.84,NNW,329,0.0,0.0,96,0.00,,---,0.00,VWS V13.01,2013-06-19 07:01:00,
2013-06-19 03:04:00,67.0,65.8,29.84,NNW,329,0.0,0.0,96,0.00,,---,0.00,VWS V13.01,2013-06-19 07:04:00,
2013-06-19 03:06:00,67.0,65.8,29.84,NNW,329,0.0,0.0,96,0.00,,---,0.00,VWS V13.01,2013-06-19 07:06:00,
2013-06-19 03:09:00,67.0,65.8,29.84,NNW,329,0.0,1.0,96,0.00,,---,0.00,VWS V13.01,2013-06-19 07:09:00,
2013-06-19 03:11:00,66.9,65.7,29.84,NNW,329,0.0,1.0,96,0.00,,---,0.00,VWS V13.01,2013-06-19 07:11:00,
2013-06-19 03:12:00,66.9,65.7,29.84,NNW,329,0.0,1.0,96,0.00,,---,0.00,VWS V13.01,2013-06-19 07:12:00,
2013-06-19 03:14:00,66.8,65.6,29.84,NNW,329,0.0,1.0,96,0.00,,---,0.00,VWS V13.01,2013-06-19 07:14:00,
2013-06-19 03:16:00,66.8,65.6,29.84,NNW,329,0.0,1.0,96,0.00,,---,0.00,VWS V13.01,2013-06-19 07:16:00,
2013-06-19 03:17:00,66.8,65.6,29.84,NNW,329,0.0,1.0,96,0.00,,---,0.00,VWS V13.01,2013-06-19 07:17:00,
2013-06-19 03:20:00,66.7,65.5,29.84,NNW,329,0.0,1.0,96,0.00,,---,0.00,VWS V13.01,2013-06-19 07:20:00,
2013-06-19 03:21:00,66.7,65.5,29.83,NNW,329,0.0,1.0,96,0.00,,---,0.00,VWS V13.01,2013-06-19 07:21:00,
2013-06-19 03:22:00,66.7,65.5,29.84,NNW,329,0.0,1.0,96,0.00,,---,0.00,VWS V13.01,2013-06-19 07:22:00,
2013-06-19 03:25:00,66.7,65.5,29.84,NNW,329,0.0,1.0,96,0.00,,---,0.00,VWS V13.01,2013-06-19 07:25:00,
2013-06-19 03:26:00,66.6,65.4,29.84,NNW,329,0.0,1.0,96,0.00,,---,0.00,VWS V13.01,2013-06-19 07:26:00,
2013-06-19 03:27:00,66.6,65.4,29.84,NNW,329,0.0,1.0,96,0.00,,---,0.00,VWS V13.01,2013-06-19 07:27:00,
2013-06-19 03:30:00,66.6,65.4,29.84,NNW,329,0.0,1.0,96,0.00,,---,0.00,VWS V13.01,2013-06-19 07:30:00,
2013-06-19 03:31:00,66.5,65.3,29.84,NNW,329,0.0,1.0,96,0.00,,---,0.00,VWS V13.01,2013-06-19 07:31:00,
2013-06-19 03:32:00,66.5,65.3,29.84,NNW,329,0.0,0.0,96,0.00,,---,0.00,VWS V13.01,2013-06-19 07:32:00,
2013-06-19 03:35:00,66.5,65.3,29.84,NNW,329,0.0,0.0,96,0.00,,---,0.00,VWS V13.01,2013-06-19 07:35:00,
2013-06-19 03:36:00,66.5,65.3,29.84,NNW,329,0.0,0.0,96,0.00,,---,0.00,VWS V13.01,2013-06-19 07:36:00,
2013-06-19 03:37:00,66.5,65.3,29.84,NNW,329,0.0,0.0,96,0.00,,---,0.00,VWS V13.01,2013-06-19 07:37:00,
2013-06-19 03:41:00,66.4,65.2,29.84,NNW,329,0.0,0.0,96,0.00,,---,0.00,VWS V13.01,2013-06-19 07:41:00,
2013-06-19 03:42:00,66.4,65.2,29.84,NNW,329,0.0,0.0,96,0.00,,---,0.00,VWS V13.01,2013-06-19 07:42:00,
2013-06-19 03:46:00,66.3,65.1,29.84,NNW,329,0.0,0.0,96,0.00,,---,0.00,VWS V13.01,2013-06-19 07:46:00,
2013-06-19 03:47:00,66.3,65.1,29.84,NNW,329,0.0,0.0,96,0.00,,---,0.00,VWS V13.01,2013-06-19 07:47:00,
2013-06-19 03:48:00,66.3,65.1,29.84,NNW,329,0.0,0.0,96,0.00,,---,0.00,VWS V13.01,2013-06-19 07:48:00,
2013-06-19 03:51:00,66.2,65.0,29.84,NNW,329,0.0,0.0,96,0.00,,---,0.00,VWS V13.01,2013-06-19 07:51:00,
2013-06-19 03:52:00,66.2,65.0,29.85,NNW,329,0.0,0.0,96,0.00,,---,0.00,VWS V13.01,2013-06-19 07:52:00,
2013-06-19 03:53:00,66.2,65.0,29.84,NNW,329,0.0,0.0,96,0.00,,---,0.00,VWS V13.01,2013-06-19 07:53:00,
2013-06-19 03:56:00,66.1,64.9,29.84,NNW,329,0.0,0.0,96,0.00,,---,0.00,VWS V13.01,2013-06-19 07:56:00,
2013-06-19 03:57:00,66.1,64.9,29.85,NNW,329,0.0,0.0,96,0.00,,---,0.00,VWS V13.01,2013-06-19 07:57:00,
2013-06-19 03:58:00,66.1,64.9,29.84,NNW,329,0.0,0.0,96,0.00,,---,0.00,VWS V13.01,2013-06-19 07:58:00,
2013-06-19 04:01:00,66.1,64.9,29.84,NNW,329,0.0,0.0,96,0.00,,---,0.00,VWS V13.01,2013-06-19 08:01:00,
2013-06-19 04:02:00,66.1,64.9,29.85,NNW,329,0.0,0.0,96,0.00,,---,0.00,VWS V13.01,2013-06-19 08:02:00,
2013-06-19 04:03:00,66.0,64.8,29.85,NNW,329,0.0,0.0,96,0.00,,---,0.00,VWS V13.01,2013-06-19 08:03:00,
2013-06-19 04:06:00,66.0,64.8,29.84,NNW,329,0.0,0.0,96,0.00,,---,0.00,VWS V13.01,2013-06-19 08:06:00,
2013-06-19 04:07:00,66.0,64.8,29.84,NNW,329,0.0,0.0,96,0.00,,---,0.00,VWS V13.01,2013-06-19 08:07:00,
2013-06-19 04:08:00,66.0,64.8,29.85,NNW,329,0.0,0.0,96,0.00,,---,0.00,VWS V13.01,2013-06-19 08:08:00,
2013-06-19 04:11:00,65.9,64.7,29.85,NNW,329,0.0,0.0,96,0.00,,---,0.00,VWS V13.01,2013-06-19 08:11:00,
2013-06-19 04:12:00,65.9,64.7,29.85,NNW,329,0.0,0.0,96,0.00,,---,0.00,VWS V13.01,2013-06-19 08:12:00,
2013-06-19 04:13:00,65.9,64.7,29.85,NNW,329,0.0,0.0,96,0.00,,---,0.00,VWS V13.01,2013-06-19 08:13:00,
2013-06-19 04:16:00,65.8,64.6,29.85,NNW,329,0.0,0.0,96,0.00,,---,0.00,VWS V13.01,2013-06-19 08:16:00,
2013-06-19 04:17:00,65.8,64.6,29.85,NNW,329,0.0,0.0,96,0.00,,---,0.00,VWS V13.01,2013-06-19 08:17:00,
2013-06-19 04:18:00,65.8,64.6,29.85,NNW,329,0.0,0.0,96,0.00,,---,0.00,VWS V13.01,2013-06-19 08:18:00,
2013-06-19 04:19:00,65.7,64.5,29.85,NNW,329,0.0,0.0,96,0.00,,---,0.00,VWS V13.01,2013-06-19 08:19:00,
2013-06-19 04:21:00,65.7,64.5,29.85,NNW,329,0.0,0.0,96,0.00,,---,0.00,VWS V13.01,2013-06-19 08:21:00,
2013-06-19 04:22:00,65.7,64.5,29.85,NNW,329,0.0,0.0,96,0.00,,---,0.00,VWS V13.01,2013-06-19 08:22:00,
2013-06-19 04:23:00,65.7,64.5,29.85,NNW,329,0.0,0.0,96,0.00,,---,0.00,VWS V13.01,2013-06-19 08:23:00,
2013-06-19 04:24:00,65.7,64.5,29.85,NNW,329,0.0,0.0,96,0.00,,---,0.00,VWS V13.01,2013-06-19 08:24:00,
2013-06-19 04:27:00,65.6,64.4,29.85,NNW,329,0.0,0.0,96,0.00,,---,0.00,VWS V13.01,2013-06-19 08:27:00,
2013-06-19 04:28:00,65.6,64.4,29.85,NNW,329,0.0,0.0,96,0.00,,---,0.00,VWS V13.01,2013-06-19 08:28:00,
2013-06-19 04:29:00,65.6,64.4,29.85,NNW,329,0.0,0.0,96,0.00,,---,0.00,VWS V13.01,2013-06-19 08:29:00,
2013-06-19 04:32:00,65.5,64.3,29.85,NNW,329,0.0,0.0,96,0.00,,---,0.00,VWS V13.01,2013-06-19 08:32:00,
2013-06-19 04:33:00,65.5,64.3,29.85,NNW,329,0.0,0.0,96,0.00,,---,0.00,VWS V13.01,2013-06-19 08:33:00,
2013-06-19 04:34:00,65.4,64.2,29.85,NNW,329,0.0,0.0,96,0.00,,---,0.00,VWS V13.01,2013-06-19 08:34:00,
2013-06-19 04:37:00,65.4,64.2,29.85,NNW,329,0.0,0.0,96,0.00,,---,0.00,VWS V13.01,2013-06-19 08:37:00,
2013-06-19 04:38:00,65.4,64.2,29.85,NNW,329,0.0,0.0,96,0.00,,---,0.00,VWS V13.01,2013-06-19 08:38:00,
2013-06-19 04:39:00,65.4,64.2,29.85,NNW,329,0.0,0.0,96,0.00,,---,0.00,VWS V13.01,2013-06-19 08:39:00,
2013-06-19 04:42:00,65.3,64.1,29.85,NNW,329,0.0,0.0,96,0.00,,---,0.00,VWS V13.01,2013-06-19 08:42:00,
2013-06-19 04:43:00,65.3,64.1,29.85,NNW,329,0.0,0.0,96,0.00,,---,0.00,VWS V13.01,2013-06-19 08:43:00,
2013-06-19 04:44:00,65.3,64.1,29.85,NNW,329,0.0,0.0,96,0.00,,---,0.00,VWS V13.01,2013-06-19 08:44:00,
2013-06-19 04:47:00,65.2,64.0,29.85,NNW,329,0.0,0.0,96,0.00,,---,0.00,VWS V13.01,2013-06-19 08:47:00,
2013-06-19 04:48:00,65.2,64.0,29.85,NNW,329,0.0,0.0,96,0.00,,---,0.00,VWS V13.01,2013-06-19 08:48:00,
2013-06-19 04:49:00,65.2,64.0,29.85,NNW,329,0.0,0.0,96,0.00,,---,0.00,VWS V13.01,2013-06-19 08:49:00,
2013-06-19 04:52:00,65.1,63.9,29.85,NNW,329,0.0,1.0,96,0.00,,---,0.00,VWS V13.01,2013-06-19 08:52:00,
2013-06-19 04:53:00,65.1,63.9,29.85,NNW,329,0.0,1.0,96,0.00,,---,0.00,VWS V13.01,2013-06-19 08:53:00,
2013-06-19 04:54:00,65.1,63.9,29.85,NNW,329,0.0,1.0,96,0.00,,---,0.00,VWS V13.01,2013-06-19 08:54:00,
2013-06-19 04:57:00,65.0,63.8,29.85,NNW,329,0.0,1.0,96,0.00,,---,0.00,VWS V13.01,2013-06-19 08:57:00,
2013-06-19 04:58:00,65.0,63.8,29.85,NNW,329,0.0,1.0,96,0.00,,---,0.00,VWS V13.01,2013-06-19 08:58:00,
2013-06-19 04:59:00,65.0,63.8,29.85,NNW,329,0.0,1.0,96,0.00,,---,0.00,VWS V13.01,2013-06-19 08:59:00,
2013-06-19 05:02:00,65.0,63.8,29.85,NNW,329,0.0,0.0,96,0.00,,---,0.00,VWS V13.01,2013-06-19 09:02:00,
2013-06-19 05:03:00,65.0,63.8,29.85,NNW,329,0.0,0.0,96,0.00,,---,0.00,VWS V13.01,2013-06-19 09:03:00,
2013-06-19 05:04:00,64.9,63.7,29.85,NNW,329,0.0,0.0,96,0.00,,---,0.00,VWS V13.01,2013-06-19 09:04:00,
2013-06-19 05:05:00,64.9,63.7,29.85,NNW,329,0.0,0.0,96,0.00,,---,0.00,VWS V13.01,2013-06-19 09:05:00,
2013-06-19 05:07:00,64.9,63.7,29.85,NNW,329,0.0,0.0,96,0.00,,---,0.00,VWS V13.01,2013-06-19 09:07:00,
2013-06-19 05:08:00,64.9,63.7,29.85,NNW,329,0.0,0.0,96,0.00,,---,0.00,VWS V13.01,2013-06-19 09:08:00,
2013-06-19 05:09:00,64.9,63.7,29.85,NNW,329,0.0,0.0,96,0.00,,---,0.00,VWS V13.01,2013-06-19 09:09:00,
2013-06-19 05:10:00,64.9,63.7,29.85,NNW,329,0.0,0.0,96,0.00,,---,0.00,VWS V13.01,2013-06-19 09:10:00,
2013-06-19 05:12:00,64.8,63.6,29.85,NNW,329,0.0,0.0,96,0.00,,---,0.00,VWS V13.01,2013-06-19 09:12:00,
2013-06-19 05:13:00,64.8,63.6,29.85,NNW,329,0.0,0.0,96,0.00,,---,0.00,VWS V13.01,2013-06-19 09:13:00,
2013-06-19 05:14:00,64.8,63.6,29.85,NNW,329,0.0,0.0,96,0.00,,---,0.00,VWS V13.01,2013-06-19 09:14:00,
2013-06-19 05:15:00,64.8,63.6,29.85,NNW,329,0.0,0.0,96,0.00,,---,0.00,VWS V13.01,2013-06-19 09:15:00,
2013-06-19 05:17:00,64.8,63.6,29.86,NNW,329,0.0,0.0,96,0.00,,---,0.00,VWS V13.01,2013-06-19 09:17:00,
2013-06-19 05:18:00,64.8,63.6,29.86,NNW,329,0.0,0.0,96,0.00,,---,0.00,VWS V13.01,2013-06-19 09:18:00,
2013-06-19 05:19:00,64.8,63.6,29.86,NNW,329,0.0,0.0,96,0.00,,---,0.00,VWS V13.01,2013-06-19 09:19:00,
2013-06-19 05:20:00,64.8,63.6,29.86,NNW,329,0.0,1.0,96,0.00,,---,0.00,VWS V13.01,2013-06-19 09:20:00,
2013-06-19 05:22:00,64.8,63.6,29.86,NNW,329,0.0,1.0,96,0.00,,---,0.00,VWS V13.01,2013-06-19 09:22:00,
2013-06-19 05:23:00,64.7,63.5,29.86,NNW,329,0.0,1.0,96,0.00,,---,0.00,VWS V13.01,2013-06-19 09:23:00,
2013-06-19 05:24:00,64.7,63.5,29.86,NNW,329,0.0,1.0,96,0.00,,---,0.00,VWS V13.01,2013-06-19 09:24:00,
2013-06-19 05:25:00,64.7,63.5,29.86,NNW,329,0.0,1.0,96,0.00,,---,0.00,VWS V13.01,2013-06-19 09:25:00,
2013-06-19 05:26:00,64.7,63.5,29.86,NNW,329,0.0,1.0,96,0.00,,---,0.00,VWS V13.01,2013-06-19 09:26:00,
2013-06-19 05:27:00,64.7,63.5,29.86,NNW,329,0.0,1.0,96,0.00,,---,0.00,VWS V13.01,2013-06-19 09:27:00,
2013-06-19 05:29:00,64.7,63.5,29.86,NNW,329,0.0,1.0,96,0.00,,---,0.00,VWS V13.01,2013-06-19 09:29:00,
2013-06-19 05:30:00,64.7,63.5,29.86,NNW,329,0.0,1.0,96,0.00,,---,0.00,VWS V13.01,2013-06-19 09:30:00,
2013-06-19 05:31:00,64.7,63.5,29.86,NNW,329,0.0,0.0,96,0.00,,---,0.00,VWS V13.01,2013-06-19 09:31:00,
2013-06-19 05:32:00,64.7,63.5,29.86,NNW,329,0.0,0.0,96,0.00,,---,0.00,VWS V13.01,2013-06-19 09:32:00,
2013-06-19 05:34:00,64.7,63.5,29.86,NNW,329,0.0,0.0,96,0.00,,---,0.00,VWS V13.01,2013-06-19 09:34:00,
2013-06-19 05:35:00,64.6,63.4,29.87,NNW,329,0.0,0.0,96,0.00,,---,0.00,VWS V13.01,2013-06-19 09:35:00,
2013-06-19 05:36:00,64.6,63.4,29.87,NNW,329,0.0,0.0,96,0.00,,---,0.00,VWS V13.01,2013-06-19 09:36:00,
2013-06-19 05:37:00,64.6,63.4,29.87,NNW,329,0.0,0.0,96,0.00,,---,0.00,VWS V13.01,2013-06-19 09:37:00,
2013-06-19 05:39:00,64.6,63.4,29.87,NNW,329,0.0,0.0,96,0.00,,---,0.00,VWS V13.01,2013-06-19 09:39:00,
2013-06-19 05:40:00,64.6,63.4,29.87,NNW,329,0.0,0.0,96,0.00,,---,0.00,VWS V13.01,2013-06-19 09:40:00,
2013-06-19 05:41:00,64.5,63.3,29.87,NNW,329,0.0,0.0,96,0.00,,---,0.00,VWS V13.01,2013-06-19 09:41:00,
2013-06-19 05:42:00,64.5,63.3,29.87,NNW,329,0.0,0.0,96,0.00,,---,0.00,VWS V13.01,2013-06-19 09:42:00,
2013-06-19 05:44:00,64.5,63.3,29.87,NNW,329,0.0,0.0,96,0.00,,---,0.00,VWS V13.01,2013-06-19 09:44:00,
2013-06-19 05:45:00,64.5,63.3,29.87,NNW,329,0.0,0.0,96,0.00,,---,0.00,VWS V13.01,2013-06-19 09:45:00,
2013-06-19 05:46:00,64.5,63.3,29.87,NNW,329,0.0,0.0,96,0.00,,---,0.00,VWS V13.01,2013-06-19 09:46:00,
2013-06-19 05:48:00,64.5,63.3,29.87,NNW,329,0.0,0.0,96,0.00,,---,0.00,VWS V13.01,2013-06-19 09:48:00,
2013-06-19 05:49:00,64.4,63.2,29.87,NNW,329,0.0,0.0,96,0.00,,---,0.00,VWS V13.01,2013-06-19 09:49:00,
2013-06-19 05:51:00,64.4,63.2,29.87,NNW,329,0.0,0.0,96,0.00,,---,0.00,VWS V13.01,2013-06-19 09:51:00,
2013-06-19 05:52:00,64.4,63.2,29.87,NNW,329,0.0,0.0,96,0.00,,---,0.00,VWS V13.01,2013-06-19 09:52:00,
2013-06-19 05:53:00,64.4,63.2,29.87,NNW,329,0.0,0.0,96,0.00,,---,0.00,VWS V13.01,2013-06-19 09:53:00,
2013-06-19 05:54:00,64.3,63.1,29.88,NNW,329,0.0,0.0,96,0.00,,---,0.00,VWS V13.01,2013-06-19 09:54:00,
2013-06-19 05:56:00,64.3,63.1,29.88,NNW,329,0.0,0.0,96,0.00,,---,0.00,VWS V13.01,2013-06-19 09:56:00,
2013-06-19 05:57:00,64.3,63.1,29.87,NNW,329,0.0,0.0,96,0.00,,---,0.00,VWS V13.01,2013-06-19 09:57:00,
2013-06-19 05:58:00,64.3,63.1,29.88,NNW,329,0.0,0.0,96,0.00,,---,0.00,VWS V13.01,2013-06-19 09:58:00,
2013-06-19 05:59:00,64.3,63.1,29.88,NNW,329,0.0,0.0,96,0.00,,---,0.00,VWS V13.01,2013-06-19 09:59:00,
2013-06-19 06:00:00,64.3,63.1,29.88,NNW,329,0.0,0.0,96,0.00,,---,0.00,VWS V13.01,2013-06-19 10:00:00,
2013-06-19 06:01:00,64.2,63.0,29.88,NNW,329,0.0,0.0,96,0.00,,---,0.00,VWS V13.01,2013-06-19 10:01:00,
2013-06-19 06:02:00,64.2,63.0,29.88,NNW,329,0.0,0.0,96,0.00,,---,0.00,VWS V13.01,2013-06-19 10:02:00,
2013-06-19 06:03:00,64.2,63.0,29.88,NNW,329,0.0,0.0,96,0.00,,---,0.00,VWS V13.01,2013-06-19 10:03:00,
2013-06-19 06:05:00,64.2,63.0,29.88,NNW,329,0.0,0.0,96,0.00,,---,0.00,VWS V13.01,2013-06-19 10:05:00,
2013-06-19 06:06:00,64.1,62.9,29.88,NNW,329,0.0,0.0,96,0.00,,---,0.00,VWS V13.01,2013-06-19 10:06:00,
2013-06-19 06:07:00,64.1,62.9,29.88,NNW,329,0.0,0.0,96,0.00,,---,0.00,VWS V13.01,2013-06-19 10:07:00,
2013-06-19 06:08:00,64.1,62.9,29.88,NNW,329,0.0,0.0,96,0.00,,---,0.00,VWS V13.01,2013-06-19 10:08:00,
2013-06-19 06:10:00,64.1,62.9,29.88,NNW,329,0.0,0.0,96,0.00,,---,0.00,VWS V13.01,2013-06-19 10:10:00,
2013-06-19 06:11:00,64.0,62.8,29.88,NNW,329,0.0,0.0,96,0.00,,---,0.00,VWS V13.01,2013-06-19 10:11:00,
2013-06-19 06:12:00,64.0,62.8,29.88,NNW,329,0.0,0.0,96,0.00,,---,0.00,VWS V13.01,2013-06-19 10:12:00,
2013-06-19 06:13:00,64.0,62.8,29.88,NNW,329,0.0,0.0,96,0.00,,---,0.00,VWS V13.01,2013-06-19 10:13:00,
2013-06-19 06:15:00,64.0,62.8,29.88,NNW,329,0.0,0.0,96,0.00,,---,0.00,VWS V13.01,2013-06-19 10:15:00,
2013-06-19 06:17:00,64.0,62.8,29.88,NNW,329,0.0,0.0,96,0.00,,---,0.00,VWS V13.01,2013-06-19 10:17:00,
2013-06-19 06:18:00,63.9,62.7,29.88,NNW,329,0.0,0.0,96,0.00,,---,0.00,VWS V13.01,2013-06-19 10:18:00,
2013-06-19 06:20:00,63.9,62.7,29.88,NNW,329,0.0,0.0,96,0.00,,---,0.00,VWS V13.01,2013-06-19 10:20:00,
2013-06-19 06:22:00,63.9,62.7,29.88,NNW,329,0.0,0.0,96,0.00,,---,0.00,VWS V13.01,2013-06-19 10:22:00,
2013-06-19 06:23:00,63.9,62.7,29.88,NNW,329,0.0,0.0,96,0.00,,---,0.00,VWS V13.01,2013-06-19 10:23:00,
2013-06-19 06:24:00,63.9,62.7,29.88,NNW,329,0.0,0.0,96,0.00,,---,0.00,VWS V13.01,2013-06-19 10:24:00,
2013-06-19 06:25:00,63.8,62.6,29.89,NNW,329,0.0,0.0,96,0.00,,---,0.00,VWS V13.01,2013-06-19 10:25:00,
2013-06-19 06:27:00,63.8,62.6,29.89,NNW,329,0.0,0.0,96,0.00,,---,0.00,VWS V13.01,2013-06-19 10:27:00,
2013-06-19 06:28:00,63.8,62.6,29.89,NNW,329,0.0,0.0,96,0.00,,---,0.00,VWS V13.01,2013-06-19 10:28:00,
2013-06-19 06:29:00,63.8,62.6,29.89,NNW,329,0.0,0.0,96,0.00,,---,0.00,VWS V13.01,2013-06-19 10:29:00,
2013-06-19 06:30:00,63.8,62.6,29.89,NNW,329,0.0,0.0,96,0.00,,---,0.00,VWS V13.01,2013-06-19 10:30:00,
2013-06-19 06:32:00,63.7,62.5,29.89,NNW,329,0.0,0.0,96,0.00,,---,0.00,VWS V13.01,2013-06-19 10:32:00,
2013-06-19 06:33:00,63.7,62.5,29.89,NNW,329,0.0,0.0,96,0.00,,---,0.00,VWS V13.01,2013-06-19 10:33:00,
2013-06-19 06:34:00,63.7,62.5,29.89,NNW,329,0.0,0.0,96,0.00,,---,0.00,VWS V13.01,2013-06-19 10:34:00,
2013-06-19 06:35:00,63.7,62.5,29.89,NNW,329,0.0,0.0,96,0.00,,---,0.00,VWS V13.01,2013-06-19 10:35:00,
2013-06-19 06:36:00,63.7,62.5,29.89,NNW,329,0.0,0.0,96,0.00,,---,0.00,VWS V13.01,2013-06-19 10:36:00,
2013-06-19 06:37:00,63.7,62.5,29.89,NNW,329,0.0,0.0,96,0.00,,---,0.00,VWS V13.01,2013-06-19 10:37:00,
2013-06-19 06:39:00,63.6,62.4,29.89,NNW,329,0.0,0.0,96,0.00,,---,0.00,VWS V13.01,2013-06-19 10:39:00,
2013-06-19 06:40:00,63.6,62.4,29.89,NNW,329,0.0,0.0,96,0.00,,---,0.00,VWS V13.01,2013-06-19 10:40:00,
2013-06-19 06:41:00,63.6,62.4,29.90,NNW,329,0.0,0.0,96,0.00,,---,0.00,VWS V13.01,2013-06-19 10:41:00,
2013-06-19 06:42:00,63.6,62.4,29.90,NNW,329,0.0,0.0,96,0.00,,---,0.00,VWS V13.01,2013-06-19 10:42:00,
2013-06-19 06:44:00,63.6,62.4,29.90,NNW,329,0.0,0.0,96,0.00,,---,0.00,VWS V13.01,2013-06-19 10:44:00,
2013-06-19 06:45:00,63.6,62.4,29.90,NNW,329,0.0,0.0,96,0.00,,---,0.00,VWS V13.01,2013-06-19 10:45:00,
2013-06-19 06:46:00,63.6,62.4,29.90,NNW,329,0.0,0.0,96,0.00,,---,0.00,VWS V13.01,2013-06-19 10:46:00,
2013-06-19 06:47:00,63.6,62.4,29.90,NNW,329,0.0,0.0,96,0.00,,---,0.00,VWS V13.01,2013-06-19 10:47:00,
2013-06-19 06:49:00,63.6,62.4,29.90,NNW,329,0.0,0.0,96,0.00,,---,0.00,VWS V13.01,2013-06-19 10:49:00,
2013-06-19 06:50:00,63.6,62.4,29.90,NNW,329,0.0,0.0,96,0.00,,---,0.00,VWS V13.01,2013-06-19 10:50:00,
2013-06-19 06:51:00,63.6,62.4,29.90,NNW,329,0.0,0.0,96,0.00,,---,0.00,VWS V13.01,2013-06-19 10:51:00,
2013-06-19 06:52:00,63.6,62.4,29.90,NNW,329,0.0,0.0,96,0.00,,---,0.00,VWS V13.01,2013-06-19 10:52:00,
2013-06-19 06:54:00,63.6,62.4,29.90,NNW,329,0.0,0.0,96,0.00,,---,0.00,VWS V13.01,2013-06-19 10:54:00,
2013-06-19 06:55:00,63.6,62.4,29.90,NNW,329,0.0,0.0,96,0.00,,---,0.00,VWS V13.01,2013-06-19 10:55:00,
2013-06-19 06:56:00,63.6,62.4,29.90,NNW,329,0.0,0.0,96,0.00,,---,0.00,VWS V13.01,2013-06-19 10:56:00,
2013-06-19 06:57:00,63.6,62.4,29.90,NNW,329,0.0,0.0,96,0.00,,---,0.00,VWS V13.01,2013-06-19 10:57:00,
2013-06-19 06:59:00,63.6,62.4,29.90,NNW,329,0.0,0.0,96,0.00,,---,0.00,VWS V13.01,2013-06-19 10:59:00,
2013-06-19 07:00:00,63.6,62.4,29.90,NNW,329,0.0,0.0,96,0.00,,---,0.00,VWS V13.01,2013-06-19 11:00:00,
2013-06-19 07:01:00,63.6,62.4,29.90,NNW,329,0.0,0.0,96,0.00,,---,0.00,VWS V13.01,2013-06-19 11:01:00,
2013-06-19 07:02:00,63.6,62.4,29.90,NNW,329,0.0,0.0,96,0.00,,---,0.00,VWS V13.01,2013-06-19 11:02:00,
2013-06-19 07:04:00,63.7,62.8,29.90,NNW,329,0.0,0.0,97,0.00,,---,0.00,VWS V13.01,2013-06-19 11:04:00,
2013-06-19 07:05:00,63.7,62.8,29.90,NNW,329,0.0,0.0,97,0.00,,---,0.00,VWS V13.01,2013-06-19 11:05:00,
2013-06-19 07:06:00,63.7,62.8,29.90,NNW,329,0.0,0.0,97,0.00,,---,0.00,VWS V13.01,2013-06-19 11:06:00,
2013-06-19 07:07:00,63.7,62.8,29.90,NNW,329,0.0,0.0,97,0.00,,---,0.00,VWS V13.01,2013-06-19 11:07:00,
2013-06-19 07:08:00,63.7,62.8,29.90,NNW,329,0.0,0.0,97,0.00,,---,0.00,VWS V13.01,2013-06-19 11:08:00,
2013-06-19 07:09:00,63.7,62.8,29.91,NNW,329,0.0,0.0,97,0.00,,---,0.00,VWS V13.01,2013-06-19 11:09:00,
2013-06-19 07:10:00,63.8,62.9,29.91,NNW,329,0.0,0.0,97,0.00,,---,0.00,VWS V13.01,2013-06-19 11:10:00,
2013-06-19 07:11:00,63.8,62.9,29.91,NNW,329,0.0,0.0,97,0.00,,---,0.00,VWS V13.01,2013-06-19 11:11:00,
2013-06-19 07:12:00,63.8,62.9,29.91,NNW,329,0.0,0.0,97,0.00,,---,0.00,VWS V13.01,2013-06-19 11:12:00,
2013-06-19 07:13:00,63.8,62.9,29.91,NNW,329,0.0,0.0,97,0.00,,---,0.00,VWS V13.01,2013-06-19 11:13:00,
2013-06-19 07:14:00,63.9,63.0,29.91,NNW,329,0.0,0.0,97,0.00,,---,0.00,VWS V13.01,2013-06-19 11:14:00,
2013-06-19 07:15:00,63.9,63.0,29.91,NNW,329,0.0,0.0,97,0.00,,---,0.00,VWS V13.01,2013-06-19 11:15:00,
2013-06-19 07:16:00,63.9,63.0,29.91,NNW,329,0.0,0.0,97,0.00,,---,0.00,VWS V13.01,2013-06-19 11:16:00,
2013-06-19 07:17:00,64.0,63.1,29.91,NNW,329,0.0,0.0,97,0.00,,---,0.00,VWS V13.01,2013-06-19 11:17:00,
2013-06-19 07:18:00,64.0,63.1,29.91,NNW,329,0.0,0.0,97,0.00,,---,0.00,VWS V13.01,2013-06-19 11:18:00,
2013-06-19 07:19:00,64.0,63.1,29.91,NNW,329,0.0,0.0,97,0.00,,---,0.00,VWS V13.01,2013-06-19 11:19:00,
2013-06-19 07:20:00,64.1,63.2,29.91,NNW,329,0.0,0.0,97,0.00,,---,0.00,VWS V13.01,2013-06-19 11:20:00,
2013-06-19 07:21:00,64.1,63.2,29.91,NNW,329,0.0,0.0,97,0.00,,---,0.00,VWS V13.01,2013-06-19 11:21:00,
2013-06-19 07:22:00,64.1,63.2,29.91,NNW,329,0.0,0.0,97,0.00,,---,0.00,VWS V13.01,2013-06-19 11:22:00,
2013-06-19 07:24:00,64.2,63.3,29.91,NNW,329,0.0,0.0,97,0.00,,---,0.00,VWS V13.01,2013-06-19 11:24:00,
2013-06-19 07:25:00,64.2,63.3,29.91,NNW,329,0.0,0.0,97,0.00,,---,0.00,VWS V13.01,2013-06-19 11:25:00,
2013-06-19 07:27:00,64.3,63.4,29.91,NNW,329,0.0,0.0,97,0.00,,---,0.00,VWS V13.01,2013-06-19 11:27:00,
2013-06-19 07:29:00,64.4,63.5,29.91,NNW,329,0.0,1.0,97,0.00,,---,0.00,VWS V13.01,2013-06-19 11:29:00,
2013-06-19 07:30:00,64.5,63.6,29.91,NNW,329,0.0,1.0,97,0.00,,---,0.00,VWS V13.01,2013-06-19 11:30:00,
2013-06-19 07:32:00,64.7,63.8,29.91,NNW,329,0.0,1.0,97,0.00,,---,0.00,VWS V13.01,2013-06-19 11:32:00,
2013-06-19 07:33:00,64.7,63.8,29.91,NNW,329,0.0,1.0,97,0.00,,---,0.00,VWS V13.01,2013-06-19 11:33:00,
2013-06-19 07:34:00,64.8,64.2,29.91,NNW,329,0.0,1.0,98,0.00,,---,0.00,VWS V13.01,2013-06-19 11:34:00,
2013-06-19 07:35:00,64.9,64.0,29.91,NNW,329,0.0,1.0,97,0.00,,---,0.00,VWS V13.01,2013-06-19 11:35:00,
2013-06-19 07:37:00,65.0,64.1,29.91,NNW,329,0.0,1.0,97,0.00,,---,0.00,VWS V13.01,2013-06-19 11:37:00,
2013-06-19 07:38:00,65.0,64.1,29.91,NNW,329,0.0,1.0,97,0.00,,---,0.00,VWS V13.01,2013-06-19 11:38:00,
2013-06-19 07:39:00,65.0,64.1,29.91,NNW,329,0.0,1.0,97,0.00,,---,0.00,VWS V13.01,2013-06-19 11:39:00,
2013-06-19 07:40:00,65.1,64.2,29.91,NNW,329,0.0,1.0,97,0.00,,---,0.00,VWS V13.01,2013-06-19 11:40:00,
2013-06-19 07:43:00,65.3,64.7,29.91,NNW,329,0.0,1.0,98,0.00,,---,0.00,VWS V13.01,2013-06-19 11:43:00,
2013-06-19 07:44:00,65.4,64.8,29.91,NNW,329,0.0,1.0,98,0.00,,---,0.00,VWS V13.01,2013-06-19 11:44:00,
2013-06-19 07:45:00,65.5,64.9,29.91,NNW,329,0.0,1.0,98,0.00,,---,0.00,VWS V13.01,2013-06-19 11:45:00,
2013-06-19 07:48:00,65.8,65.2,29.92,NNW,329,0.0,1.0,98,0.00,,---,0.00,VWS V13.01,2013-06-19 11:48:00,
2013-06-19 07:49:00,66.0,65.4,29.92,NNW,329,0.0,1.0,98,0.00,,---,0.00,VWS V13.01,2013-06-19 11:49:00,
2013-06-19 07:50:00,66.1,65.5,29.92,NNW,329,0.0,1.0,98,0.00,,---,0.00,VWS V13.01,2013-06-19 11:50:00,
2013-06-19 07:53:00,66.3,65.7,29.92,NNW,329,0.0,1.0,98,0.00,,---,0.00,VWS V13.01,2013-06-19 11:53:00,
2013-06-19 07:54:00,66.5,65.9,29.92,NNW,329,0.0,1.0,98,0.00,,---,0.00,VWS V13.01,2013-06-19 11:54:00,
2013-06-19 07:56:00,66.6,66.0,29.92,NNW,329,0.0,1.0,98,0.00,,---,0.00,VWS V13.01,2013-06-19 11:56:00,
2013-06-19 07:58:00,66.9,66.3,29.92,NNW,329,0.0,1.0,98,0.00,,---,0.00,VWS V13.01,2013-06-19 11:58:00,
2013-06-19 07:59:00,67.1,66.5,29.92,NNW,329,0.0,1.0,98,0.00,,---,0.00,VWS V13.01,2013-06-19 11:59:00,
2013-06-19 08:01:00,67.2,66.6,29.92,NNW,329,0.0,1.0,98,0.00,,---,0.00,VWS V13.01,2013-06-19 12:01:00,
2013-06-19 08:03:00,67.3,66.7,29.92,NNW,329,0.0,1.0,98,0.00,,---,0.00,VWS V13.01,2013-06-19 12:03:00,
2013-06-19 08:05:00,67.4,66.8,29.92,NNW,329,0.0,1.0,98,0.00,,---,0.00,VWS V13.01,2013-06-19 12:05:00,
2013-06-19 08:06:00,67.5,66.9,29.92,NNW,329,0.0,1.0,98,0.00,,---,0.00,VWS V13.01,2013-06-19 12:06:00,
2013-06-19 08:07:00,67.5,66.9,29.92,NNW,329,0.0,1.0,98,0.00,,---,0.00,VWS V13.01,2013-06-19 12:07:00,
2013-06-19 08:08:00,67.6,67.0,29.92,NNW,329,0.0,1.0,98,0.00,,---,0.00,VWS V13.01,2013-06-19 12:08:00,
2013-06-19 08:10:00,67.8,67.2,29.92,NNW,329,0.0,1.0,98,0.00,,---,0.00,VWS V13.01,2013-06-19 12:10:00,
2013-06-19 08:11:00,67.9,67.3,29.92,NNW,329,0.0,1.0,98,0.00,,---,0.00,VWS V13.01,2013-06-19 12:11:00,
2013-06-19 08:12:00,67.9,67.3,29.92,NNW,329,0.0,1.0,98,0.00,,---,0.00,VWS V13.01,2013-06-19 12:12:00,
2013-06-19 08:13:00,68.0,67.4,29.92,NNW,329,0.0,1.0,98,0.00,,---,0.00,VWS V13.01,2013-06-19 12:13:00,
2013-06-19 08:16:00,68.1,67.5,29.92,NNW,329,0.0,1.0,98,0.00,,---,0.00,VWS V13.01,2013-06-19 12:16:00,
2013-06-19 08:17:00,68.2,67.6,29.92,NNW,329,0.0,1.0,98,0.00,,---,0.00,VWS V13.01,2013-06-19 12:17:00,
2013-06-19 08:18:00,68.3,67.7,29.93,NNW,329,0.0,1.0,98,0.00,,---,0.00,VWS V13.01,2013-06-19 12:18:00,
2013-06-19 08:19:00,68.3,67.7,29.93,NNW,329,0.0,1.0,98,0.00,,---,0.00,VWS V13.01,2013-06-19 12:19:00,
2013-06-19 08:21:00,68.4,67.8,29.93,NNW,329,0.0,1.0,98,0.00,,---,0.00,VWS V13.01,2013-06-19 12:21:00,
2013-06-19 08:22:00,68.5,67.9,29.93,NNW,329,0.0,1.0,98,0.00,,---,0.00,VWS V13.01,2013-06-19 12:22:00,
2013-06-19 08:24:00,68.5,67.9,29.93,NNW,329,0.0,1.0,98,0.00,,---,0.00,VWS V13.01,2013-06-19 12:24:00,
2013-06-19 08:26:00,68.5,67.9,29.93,NNW,329,0.0,1.0,98,0.00,,---,0.00,VWS V13.01,2013-06-19 12:26:00,
2013-06-19 08:27:00,68.6,68.0,29.93,NNW,329,0.0,1.0,98,0.00,,---,0.00,VWS V13.01,2013-06-19 12:27:00,
2013-06-19 08:29:00,68.6,68.0,29.93,NNW,329,0.0,1.0,98,0.00,,---,0.00,VWS V13.01,2013-06-19 12:29:00,
2013-06-19 08:31:00,68.6,68.0,29.93,NNW,329,2.0,3.0,98,0.00,,---,0.00,VWS V13.01,2013-06-19 12:31:00,
2013-06-19 08:32:00,68.6,68.0,29.93,NNW,329,0.0,1.0,98,0.00,,---,0.00,VWS V13.01,2013-06-19 12:32:00,
2013-06-19 08:33:00,68.7,68.1,29.93,NNW,329,0.0,1.0,98,0.00,,---,0.00,VWS V13.01,2013-06-19 12:33:00,
2013-06-19 08:34:00,68.7,68.1,29.93,NNW,329,0.0,1.0,98,0.00,,---,0.00,VWS V13.01,2013-06-19 12:34:00,
2013-06-19 08:36:00,68.8,68.2,29.93,NNW,329,0.0,1.0,98,0.00,,---,0.00,VWS V13.01,2013-06-19 12:36:00,
2013-06-19 08:37:00,68.8,68.2,29.93,NNW,329,0.0,1.0,98,0.00,,---,0.00,VWS V13.01,2013-06-19 12:37:00,
2013-06-19 08:38:00,68.9,68.3,29.93,NNW,329,0.0,1.0,98,0.00,,---,0.00,VWS V13.01,2013-06-19 12:38:00,
2013-06-19 08:39:00,68.9,68.3,29.93,NNW,329,0.0,1.0,98,0.00,,---,0.00,VWS V13.01,2013-06-19 12:39:00,
2013-06-19 08:41:00,69.0,68.4,29.93,NNW,329,0.0,4.0,98,0.00,,---,0.00,VWS V13.01,2013-06-19 12:41:00,
2013-06-19 08:42:00,69.0,68.4,29.93,NNW,329,0.0,4.0,98,0.00,,---,0.00,VWS V13.01,2013-06-19 12:42:00,
2013-06-19 08:43:00,69.0,68.4,29.93,NNW,329,0.0,4.0,98,0.00,,---,0.00,VWS V13.01,2013-06-19 12:43:00,
2013-06-19 08:44:00,69.1,68.5,29.93,NNW,329,0.0,4.0,98,0.00,,---,0.00,VWS V13.01,2013-06-19 12:44:00,
2013-06-19 08:46:00,69.2,68.6,29.93,NNW,329,0.0,4.0,98,0.00,,---,0.00,VWS V13.01,2013-06-19 12:46:00,
2013-06-19 08:47:00,69.2,68.6,29.94,NNW,329,0.0,4.0,98,0.00,,---,0.00,VWS V13.01,2013-06-19 12:47:00,
2013-06-19 08:48:00,69.3,68.7,29.94,NNW,329,0.0,4.0,98,0.00,,---,0.00,VWS V13.01,2013-06-19 12:48:00,
2013-06-19 08:49:00,69.4,68.8,29.94,NNW,329,0.0,4.0,98,0.00,,---,0.00,VWS V13.01,2013-06-19 12:49:00,
2013-06-19 08:51:00,69.5,68.9,29.94,NNW,329,0.0,4.0,98,0.00,,---,0.00,VWS V13.01,2013-06-19 12:51:00,
2013-06-19 08:52:00,69.5,68.9,29.94,NNW,329,0.0,4.0,98,0.00,,---,0.00,VWS V13.01,2013-06-19 12:52:00,
2013-06-19 08:53:00,69.6,69.0,29.94,NNW,329,0.0,4.0,98,0.00,,---,0.00,VWS V13.01,2013-06-19 12:53:00,
2013-06-19 08:55:00,69.7,69.1,29.94,NNW,329,0.0,4.0,98,0.00,,---,0.00,VWS V13.01,2013-06-19 12:55:00,
2013-06-19 08:56:00,69.8,69.2,29.94,NNW,329,0.0,4.0,98,0.00,,---,0.00,VWS V13.01,2013-06-19 12:56:00,
2013-06-19 08:57:00,69.9,69.3,29.94,NNW,329,0.0,4.0,98,0.00,,---,0.00,VWS V13.01,2013-06-19 12:57:00,
2013-06-19 08:58:00,69.9,69.3,29.94,NNW,329,0.0,4.0,98,0.00,,---,0.00,VWS V13.01,2013-06-19 12:58:00,
2013-06-19 09:00:00,70.0,69.4,29.94,NNW,329,0.0,4.0,98,0.00,,---,0.00,VWS V13.01,2013-06-19 13:00:00,
2013-06-19 09:01:00,70.1,69.2,29.94,NNW,329,1.0,1.0,97,0.00,,---,0.00,VWS V13.01,2013-06-19 13:01:00,
2013-06-19 09:02:00,70.1,69.2,29.94,NNW,329,0.0,1.0,97,0.00,,---,0.00,VWS V13.01,2013-06-19 13:02:00,
2013-06-19 09:03:00,70.2,69.3,29.94,NNW,329,0.0,2.0,97,0.00,,---,0.00,VWS V13.01,2013-06-19 13:03:00,
2013-06-19 09:05:00,70.2,69.3,29.95,NNW,329,0.0,2.0,97,0.00,,---,0.00,VWS V13.01,2013-06-19 13:05:00,
2013-06-19 09:06:00,70.3,69.4,29.95,NNW,329,0.0,2.0,97,0.00,,---,0.00,VWS V13.01,2013-06-19 13:06:00,
2013-06-19 09:07:00,70.4,69.5,29.95,NNW,329,1.0,3.0,97,0.00,,---,0.00,VWS V13.01,2013-06-19 13:07:00,
2013-06-19 09:08:00,70.4,69.5,29.95,NNW,329,1.0,3.0,97,0.00,,---,0.00,VWS V13.01,2013-06-19 13:08:00,
2013-06-19 09:10:00,70.5,69.6,29.95,NNW,329,1.0,6.0,97,0.00,,---,0.00,VWS V13.01,2013-06-19 13:10:00,
2013-06-19 09:12:00,70.5,69.3,29.95,NNW,329,0.0,6.0,96,0.00,,---,0.00,VWS V13.01,2013-06-19 13:12:00,
2013-06-19 09:14:00,70.6,69.4,29.95,NNW,329,0.0,6.0,96,0.00,,---,0.00,VWS V13.01,2013-06-19 13:14:00,
2013-06-19 09:15:00,70.7,69.5,29.95,NNW,329,0.0,6.0,96,0.00,,---,0.00,VWS V13.01,2013-06-19 13:15:00,
2013-06-19 09:17:00,71.0,69.8,29.95,NNW,329,0.0,6.0,96,0.00,,---,0.00,VWS V13.01,2013-06-19 13:17:00,
2013-06-19 09:19:00,71.1,69.9,29.95,NNW,329,0.0,6.0,96,0.00,,---,0.00,VWS V13.01,2013-06-19 13:19:00,
2013-06-19 09:20:00,71.3,69.8,29.95,NNW,329,1.0,6.0,95,0.00,,---,0.00,VWS V13.01,2013-06-19 13:20:00,
2013-06-19 09:22:00,71.4,69.9,29.95,NNW,329,0.0,6.0,95,0.00,,---,0.00,VWS V13.01,2013-06-19 13:22:00,
2013-06-19 09:23:00,71.5,70.0,29.95,NNW,329,0.0,6.0,95,0.00,,---,0.00,VWS V13.01,2013-06-19 13:23:00,
2013-06-19 09:24:00,71.6,70.1,29.94,NNW,329,0.0,6.0,95,0.00,,---,0.00,VWS V13.01,2013-06-19 13:24:00,
2013-06-19 09:25:00,71.7,70.2,29.95,NNW,329,0.0,6.0,95,0.00,,---,0.00,VWS V13.01,2013-06-19 13:25:00,
2013-06-19 09:27:00,71.8,69.7,29.95,NNW,329,0.0,6.0,93,0.00,,---,0.00,VWS V13.01,2013-06-19 13:27:00,
2013-06-19 09:28:00,71.9,69.8,29.95,NNW,329,0.0,6.0,93,0.00,,---,0.00,VWS V13.01,2013-06-19 13:28:00,
2013-06-19 09:29:00,72.0,69.9,29.95,NNW,329,0.0,6.0,93,0.00,,---,0.00,VWS V13.01,2013-06-19 13:29:00,
2013-06-19 09:30:00,72.0,69.6,29.95,NNW,329,4.0,6.0,92,0.00,,---,0.00,VWS V13.01,2013-06-19 13:30:00,
2013-06-19 09:32:00,72.1,69.7,29.95,NNW,329,0.0,0.0,92,0.00,,---,0.00,VWS V13.01,2013-06-19 13:32:00,
2013-06-19 09:33:00,72.2,69.8,29.95,NNW,329,0.0,0.0,92,0.00,,---,0.00,VWS V13.01,2013-06-19 13:33:00,
2013-06-19 09:34:00,72.2,69.4,29.95,ENE,75,0.0,5.0,91,0.00,,---,0.00,VWS V13.01,2013-06-19 13:34:00,
2013-06-19 09:35:00,72.4,69.6,29.95,ENE,75,0.0,5.0,91,0.00,,---,0.00,VWS V13.01,2013-06-19 13:35:00,
2013-06-19 09:36:00,72.4,69.6,29.95,ENE,75,0.0,5.0,91,0.00,,---,0.00,VWS V13.01,2013-06-19 13:36:00,
2013-06-19 09:38:00,72.5,69.7,29.95,North,9,3.0,5.0,91,0.00,,---,0.00,VWS V13.01,2013-06-19 13:38:00,
2013-06-19 09:39:00,72.6,69.5,29.95,North,360,0.0,5.0,90,0.00,,---,0.00,VWS V13.01,2013-06-19 13:39:00,
2013-06-19 09:41:00,72.7,69.6,29.95,North,360,0.0,5.0,90,0.00,,---,0.00,VWS V13.01,2013-06-19 13:41:00,
2013-06-19 09:43:00,72.9,69.5,29.95,North,360,0.0,5.0,89,0.00,,---,0.00,VWS V13.01,2013-06-19 13:43:00,
2013-06-19 09:44:00,73.0,69.6,29.95,NNE,25,2.0,5.0,89,0.00,,---,0.00,VWS V13.01,2013-06-19 13:44:00,
2013-06-19 09:46:00,73.1,69.7,29.95,ENE,67,0.0,5.0,89,0.00,,---,0.00,VWS V13.01,2013-06-19 13:46:00,
2013-06-19 09:48:00,73.3,69.5,29.95,ENE,63,0.0,5.0,88,0.00,,---,0.00,VWS V13.01,2013-06-19 13:48:00,
2013-06-19 09:49:00,73.4,69.6,29.95,ENE,63,0.0,5.0,88,0.00,,---,0.00,VWS V13.01,2013-06-19 13:49:00,
2013-06-19 09:51:00,73.6,69.8,29.95,ENE,63,0.0,5.0,88,0.00,,---,0.00,VWS V13.01,2013-06-19 13:51:00,
2013-06-19 09:53:00,73.9,69.4,29.95,ENE,60,0.0,5.0,86,0.00,,---,0.00,VWS V13.01,2013-06-19 13:53:00,
2013-06-19 09:54:00,73.9,69.4,29.95,ENE,60,0.0,5.0,86,0.00,,---,0.00,VWS V13.01,2013-06-19 13:54:00,
2013-06-19 09:56:00,74.1,69.7,29.95,NE,55,0.0,5.0,86,0.00,,---,0.00,VWS V13.01,2013-06-19 13:56:00,
2013-06-19 09:58:00,74.4,69.6,29.95,NNE,18,4.0,5.0,85,0.00,,---,0.00,VWS V13.01,2013-06-19 13:58:00,
2013-06-19 09:59:00,74.5,69.7,29.95,NNE,18,0.0,5.0,85,0.00,,---,0.00,VWS V13.01,2013-06-19 13:59:00,
2013-06-19 10:00:00,74.5,69.7,29.95,NNE,17,0.0,5.0,85,0.00,,---,0.00,VWS V13.01,2013-06-19 14:00:00,
2013-06-19 10:01:00,74.6,69.8,29.95,North,5,0.0,5.0,85,0.00,,---,0.00,VWS V13.01,2013-06-19 14:01:00,
2013-06-19 10:04:00,74.9,69.7,29.95,North,5,0.0,3.0,84,0.00,,---,0.00,VWS V13.01,2013-06-19 14:04:00,
2013-06-19 10:05:00,75.0,69.8,29.95,North,360,0.0,3.0,84,0.00,,---,0.00,VWS V13.01,2013-06-19 14:05:00,
2013-06-19 10:06:00,75.1,69.6,29.95,NNE,25,0.0,4.0,83,0.00,,---,0.00,VWS V13.01,2013-06-19 14:06:00,
2013-06-19 10:09:00,75.4,69.5,29.95,NNE,23,0.0,4.0,82,0.00,,---,0.00,VWS V13.01,2013-06-19 14:09:00,
2013-06-19 10:10:00,75.5,69.6,29.95,NNE,22,0.0,4.0,82,0.00,,---,0.00,VWS V13.01,2013-06-19 14:10:00,
2013-06-19 10:11:00,75.7,69.8,29.95,NNE,30,1.0,4.0,82,0.00,,---,0.00,VWS V13.01,2013-06-19 14:11:00,
2013-06-19 10:12:00,75.8,69.6,29.95,NNE,29,1.0,4.0,81,0.00,,---,0.00,VWS V13.01,2013-06-19 14:12:00,
2013-06-19 10:14:00,76.1,69.8,29.95,NNE,25,1.0,4.0,81,0.00,,---,0.00,VWS V13.01,2013-06-19 14:14:00,
2013-06-19 10:15:00,76.1,69.8,29.95,NNE,26,0.0,4.0,81,0.00,,---,0.00,VWS V13.01,2013-06-19 14:15:00,
2013-06-19 10:16:00,76.3,69.7,29.95,NNE,21,0.0,4.0,80,0.00,,---,0.00,VWS V13.01,2013-06-19 14:16:00,
2013-06-19 10:17:00,76.3,69.7,29.95,NNE,21,0.0,4.0,80,0.00,,---,0.00,VWS V13.01,2013-06-19 14:17:00,
2013-06-19 10:19:00,76.5,69.9,29.95,NNE,21,0.0,4.0,80,0.00,,---,0.00,VWS V13.01,2013-06-19 14:19:00,
2013-06-19 10:20:00,76.6,70.0,29.95,NNE,21,0.0,4.0,80,0.00,,---,0.00,VWS V13.01,2013-06-19 14:20:00,
2013-06-19 10:21:00,76.7,70.1,29.95,NNE,21,0.0,4.0,80,0.00,,---,0.00,VWS V13.01,2013-06-19 14:21:00,
2013-06-19 10:22:00,76.8,70.2,29.95,NNE,21,0.0,4.0,80,0.00,,---,0.00,VWS V13.01,2013-06-19 14:22:00,
2013-06-19 10:24:00,77.1,70.5,29.95,NNE,21,0.0,4.0,80,0.00,,---,0.00,VWS V13.01,2013-06-19 14:24:00,
2013-06-19 10:25:00,77.1,70.5,29.95,NNE,21,0.0,4.0,80,0.00,,---,0.00,VWS V13.01,2013-06-19 14:25:00,
2013-06-19 10:26:00,77.1,70.1,29.95,NNE,21,0.0,4.0,79,0.00,,---,0.00,VWS V13.01,2013-06-19 14:26:00,
2013-06-19 10:27:00,77.2,69.8,29.95,NNE,16,0.0,4.0,78,0.00,,---,0.00,VWS V13.01,2013-06-19 14:27:00,
2013-06-19 10:30:00,77.5,69.7,29.95,North,355,5.0,5.0,77,0.00,,---,0.00,VWS V13.01,2013-06-19 14:30:00,
2013-06-19 10:31:00,77.5,69.3,29.95,North,355,0.0,6.0,76,0.00,,---,0.00,VWS V13.01,2013-06-19 14:31:00,
2013-06-19 10:32:00,77.6,69.4,29.95,North,355,0.0,1.0,76,0.00,,---,0.00,VWS V13.01,2013-06-19 14:32:00,
2013-06-19 10:35:00,77.8,69.2,29.95,NE,49,5.0,5.0,75,0.00,,---,0.00,VWS V13.01,2013-06-19 14:35:00,
2013-06-19 10:36:00,77.9,69.3,29.95,NE,53,3.0,6.0,75,0.00,,---,0.00,VWS V13.01,2013-06-19 14:36:00,
2013-06-19 10:37:00,78.0,69.4,29.95,NE,52,0.0,6.0,75,0.00,,---,0.00,VWS V13.01,2013-06-19 14:37:00,
2013-06-19 10:40:00,78.2,69.2,29.95,NE,38,7.0,7.0,74,0.00,,---,0.00,VWS V13.01,2013-06-19 14:40:00,
2013-06-19 10:41:00,78.2,68.8,29.95,NE,36,0.0,7.0,73,0.00,,---,0.00,VWS V13.01,2013-06-19 14:41:00,
2013-06-19 10:42:00,78.3,69.3,29.95,NE,36,1.0,7.0,74,0.00,,---,0.00,VWS V13.01,2013-06-19 14:42:00,
2013-06-19 10:45:00,78.5,69.9,29.95,NE,39,0.0,7.0,75,0.00,,---,0.00,VWS V13.01,2013-06-19 14:45:00,
2013-06-19 10:46:00,78.6,70.0,29.95,NE,38,0.0,7.0,75,0.00,,---,0.00,VWS V13.01,2013-06-19 14:46:00,
2013-06-19 10:47:00,78.7,69.3,29.95,NNE,30,0.0,7.0,73,0.00,,---,0.00,VWS V13.01,2013-06-19 14:47:00,
2013-06-19 10:50:00,78.8,70.2,29.95,NNE,30,0.0,7.0,75,0.00,,---,0.00,VWS V13.01,2013-06-19 14:50:00,
2013-06-19 10:51:00,78.9,70.3,29.95,NNE,30,0.0,7.0,75,0.00,,---,0.00,VWS V13.01,2013-06-19 14:51:00,
2013-06-19 10:52:00,79.0,70.0,29.95,North,9,5.0,7.0,74,0.00,,---,0.00,VWS V13.01,2013-06-19 14:52:00,
2013-06-19 10:53:00,79.0,69.6,29.95,North,360,5.0,7.0,73,0.00,,---,0.00,VWS V13.01,2013-06-19 14:53:00,
2013-06-19 10:55:00,79.2,69.8,29.95,North,360,0.0,7.0,73,0.00,,---,0.00,VWS V13.01,2013-06-19 14:55:00,
2013-06-19 10:56:00,79.2,69.8,29.95,North,5,0.0,7.0,73,0.00,,---,0.00,VWS V13.01,2013-06-19 14:56:00,
2013-06-19 10:57:00,79.3,69.9,29.95,North,5,0.0,7.0,73,0.00,,---,0.00,VWS V13.01,2013-06-19 14:57:00,
2013-06-19 10:58:00,79.3,69.9,29.95,North,360,0.0,7.0,73,0.00,,---,0.00,VWS V13.01,2013-06-19 14:58:00,
2013-06-19 11:00:00,79.4,69.2,29.95,North,5,1.0,7.0,71,0.00,,---,0.00,VWS V13.01,2013-06-19 15:00:00,
2013-06-19 11:01:00,79.4,69.6,29.95,North,5,0.0,7.0,72,0.00,,---,0.00,VWS V13.01,2013-06-19 15:01:00,
2013-06-19 11:02:00,79.5,68.9,29.95,North,5,0.0,1.0,70,0.00,,---,0.00,VWS V13.01,2013-06-19 15:02:00,
2013-06-19 11:03:00,79.5,68.9,29.95,North,360,0.0,1.0,70,0.00,,---,0.00,VWS V13.01,2013-06-19 15:03:00,
2013-06-19 11:05:00,79.6,69.0,29.95,North,5,0.0,5.0,70,0.00,,---,0.00,VWS V13.01,2013-06-19 15:05:00,
2013-06-19 11:06:00,79.7,69.5,29.95,North,360,0.0,5.0,71,0.00,,---,0.00,VWS V13.01,2013-06-19 15:06:00,
2013-06-19 11:07:00,79.8,70.0,29.96,North,360,0.0,5.0,72,0.00,,---,0.00,VWS V13.01,2013-06-19 15:07:00,
2013-06-19 11:08:00,79.8,69.6,29.95,North,360,0.0,5.0,71,0.00,,---,0.00,VWS V13.01,2013-06-19 15:08:00,
2013-06-19 11:10:00,80.0,70.2,29.95,North,360,0.0,5.0,72,0.00,,---,0.00,VWS V13.01,2013-06-19 15:10:00,
2013-06-19 11:11:00,80.0,69.8,29.96,North,5,0.0,5.0,71,0.00,,---,0.00,VWS V13.01,2013-06-19 15:11:00,
2013-06-19 11:12:00,80.1,69.9,29.96,North,5,0.0,5.0,71,0.00,,---,0.00,VWS V13.01,2013-06-19 15:12:00,
2013-06-19 11:13:00,80.2,70.4,29.95,North,360,0.0,5.0,72,0.00,,---,0.00,VWS V13.01,2013-06-19 15:13:00,
2013-06-19 11:15:00,80.3,69.6,29.95,North,11,1.0,5.0,70,0.00,,---,0.00,VWS V13.01,2013-06-19 15:15:00,
2013-06-19 11:16:00,80.4,70.6,29.96,NNE,12,0.0,5.0,72,0.00,,---,0.00,VWS V13.01,2013-06-19 15:16:00,
2013-06-19 11:17:00,80.4,70.6,29.96,NNE,12,0.0,5.0,72,0.00,,---,0.00,VWS V13.01,2013-06-19 15:17:00,
2013-06-19 11:18:00,80.5,70.7,29.95,NNE,12,0.0,5.0,72,0.00,,---,0.00,VWS V13.01,2013-06-19 15:18:00,
2013-06-19 11:21:00,80.7,70.0,29.95,NNE,15,1.0,5.0,70,0.00,,---,0.00,VWS V13.01,2013-06-19 15:21:00,
2013-06-19 11:22:00,80.8,69.3,29.95,ENE,60,7.0,7.0,68,0.00,,---,0.00,VWS V13.01,2013-06-19 15:22:00,
2013-06-19 11:23:00,80.9,69.8,29.95,ENE,63,0.0,7.0,69,0.00,,---,0.00,VWS V13.01,2013-06-19 15:23:00,
2013-06-19 11:26:00,81.0,69.9,29.96,ENE,57,2.0,7.0,69,0.00,,---,0.00,VWS V13.01,2013-06-19 15:26:00,
2013-06-19 11:27:00,81.0,69.4,29.96,NE,56,0.0,7.0,68,0.00,,---,0.00,VWS V13.01,2013-06-19 15:27:00,
2013-06-19 11:28:00,81.1,69.1,29.96,NE,53,2.0,7.0,67,0.00,,---,0.00,VWS V13.01,2013-06-19 15:28:00,
2013-06-19 11:31:00,81.3,69.7,29.95,NE,52,1.0,7.0,68,0.00,,---,0.00,VWS V13.01,2013-06-19 15:31:00,
2013-06-19 11:32:00,81.4,70.7,29.95,NE,53,0.0,1.0,70,0.00,,---,0.00,VWS V13.01,2013-06-19 15:32:00,
2013-06-19 11:33:00,81.4,70.3,29.96,NE,56,2.0,5.0,69,0.00,,---,0.00,VWS V13.01,2013-06-19 15:33:00,
2013-06-19 11:36:00,81.6,70.0,29.96,ESE,111,1.0,5.0,68,0.00,,---,0.00,VWS V13.01,2013-06-19 15:36:00,
2013-06-19 11:37:00,81.7,70.1,29.96,ESE,122,0.0,5.0,68,0.00,,---,0.00,VWS V13.01,2013-06-19 15:37:00,
2013-06-19 11:38:00,81.7,70.6,29.96,ESE,119,2.0,5.0,69,0.00,,---,0.00,VWS V13.01,2013-06-19 15:38:00,
2013-06-19 11:41:00,81.9,70.3,29.96,ESE,119,0.0,5.0,68,0.00,,---,0.00,VWS V13.01,2013-06-19 15:41:00,
2013-06-19 11:43:00,81.9,70.3,29.96,ESE,119,0.0,5.0,68,0.00,,---,0.00,VWS V13.01,2013-06-19 15:43:00,
2013-06-19 11:46:00,82.1,70.1,29.96,ESE,119,0.0,5.0,67,0.00,,---,0.00,VWS V13.01,2013-06-19 15:46:00,
2013-06-19 11:48:00,82.1,70.5,29.96,ESE,118,0.0,5.0,68,0.00,,---,0.00,VWS V13.01,2013-06-19 15:48:00,
2013-06-19 11:49:00,82.1,70.5,29.96,ESE,119,0.0,5.0,68,0.00,,---,0.00,VWS V13.01,2013-06-19 15:49:00,
2013-06-19 11:52:00,82.1,70.1,29.96,ESE,103,0.0,6.0,67,0.00,,---,0.00,VWS V13.01,2013-06-19 15:52:00,
2013-06-19 11:53:00,82.1,70.5,29.96,ESE,102,1.0,6.0,68,0.00,,---,0.00,VWS V13.01,2013-06-19 15:53:00,
2013-06-19 11:54:00,82.1,70.5,29.96,East,98,0.0,6.0,68,0.00,,---,0.00,VWS V13.01,2013-06-19 15:54:00,
2013-06-19 11:57:00,82.2,70.2,29.96,East,96,1.0,6.0,67,0.00,,---,0.00,VWS V13.01,2013-06-19 15:57:00,
2013-06-19 11:58:00,82.2,70.2,29.96,East,96,0.0,6.0,67,0.00,,---,0.00,VWS V13.01,2013-06-19 15:58:00,
2013-06-19 11:59:00,82.3,70.3,29.96,East,96,0.0,6.0,67,0.00,,---,0.00,VWS V13.01,2013-06-19 15:59:00,
2013-06-19 12:02:00,82.4,69.9,29.96,NNE,26,8.0,8.0,66,0.00,,---,0.00,VWS V13.01,2013-06-19 16:02:00,
2013-06-19 12:03:00,82.5,70.4,29.96,ENE,57,1.0,8.0,67,0.00,,---,0.00,VWS V13.01,2013-06-19 16:03:00,
2013-06-19 12:04:00,82.5,69.6,29.96,NE,36,3.0,8.0,65,0.00,,---,0.00,VWS V13.01,2013-06-19 16:04:00,
2013-06-19 12:07:00,82.5,69.6,29.96,NE,45,1.0,8.0,65,0.00,,---,0.00,VWS V13.01,2013-06-19 16:07:00,
2013-06-19 12:08:00,82.5,69.1,29.96,NE,45,0.0,8.0,64,0.00,,---,0.00,VWS V13.01,2013-06-19 16:08:00,
2013-06-19 12:09:00,82.6,69.7,29.96,NE,45,0.0,8.0,65,0.00,,---,0.00,VWS V13.01,2013-06-19 16:09:00,
2013-06-19 12:10:00,82.6,69.7,29.96,NE,45,0.0,8.0,65,0.00,,---,0.00,VWS V13.01,2013-06-19 16:10:00,
2013-06-19 12:12:00,82.7,69.3,29.96,NE,45,0.0,8.0,64,0.00,,---,0.00,VWS V13.01,2013-06-19 16:12:00,
2013-06-19 12:13:00,82.7,68.8,29.96,NE,45,0.0,8.0,63,0.00,,---,0.00,VWS V13.01,2013-06-19 16:13:00,
2013-06-19 12:14:00,82.8,69.4,29.96,NE,45,0.0,8.0,64,0.00,,---,0.00,VWS V13.01,2013-06-19 16:14:00,
2013-06-19 12:15:00,82.8,69.4,29.96,NE,45,0.0,8.0,64,0.00,,---,0.00,VWS V13.01,2013-06-19 16:15:00,
2013-06-19 12:17:00,82.8,70.3,29.96,ENE,63,0.0,8.0,66,0.00,,---,0.00,VWS V13.01,2013-06-19 16:17:00,
2013-06-19 12:18:00,82.8,70.3,29.96,East,100,0.0,8.0,66,0.00,,---,0.00,VWS V13.01,2013-06-19 16:18:00,
2013-06-19 12:19:00,82.8,70.3,29.96,East,100,0.0,8.0,66,0.00,,---,0.00,VWS V13.01,2013-06-19 16:19:00,
2013-06-19 12:20:00,82.7,69.3,29.96,East,100,0.0,8.0,64,0.00,,---,0.00,VWS V13.01,2013-06-19 16:20:00,
2013-06-19 12:22:00,82.8,71.2,29.96,East,96,0.0,8.0,68,0.00,,---,0.00,VWS V13.01,2013-06-19 16:22:00,
2013-06-19 12:24:00,82.9,71.3,29.97,East,97,0.0,8.0,68,0.00,,---,0.00,VWS V13.01,2013-06-19 16:24:00,
2013-06-19 12:25:00,83.0,70.0,29.97,East,90,0.0,8.0,65,0.00,,---,0.00,VWS V13.01,2013-06-19 16:25:00,
2013-06-19 12:27:00,83.0,70.0,29.97,East,90,0.0,8.0,65,0.00,,---,0.00,VWS V13.01,2013-06-19 16:27:00,
2013-06-19 12:29:00,83.1,70.1,29.97,NNE,20,1.0,8.0,65,0.00,,---,0.00,VWS V13.01,2013-06-19 16:29:00,
2013-06-19 12:30:00,83.2,70.2,29.97,NNE,20,0.0,8.0,65,0.00,,---,0.00,VWS V13.01,2013-06-19 16:30:00,
2013-06-19 12:32:00,83.4,70.9,29.96,NNE,17,2.0,2.0,66,0.00,,---,0.00,VWS V13.01,2013-06-19 16:32:00,
2013-06-19 12:34:00,83.5,70.1,29.97,ENE,72,1.0,4.0,64,0.00,,---,0.00,VWS V13.01,2013-06-19 16:34:00,
2013-06-19 12:35:00,83.5,70.1,29.97,ENE,69,3.0,4.0,64,0.00,,---,0.00,VWS V13.01,2013-06-19 16:35:00,
2013-06-19 12:36:00,83.5,70.1,29.97,NE,55,3.0,6.0,64,0.00,,---,0.00,VWS V13.01,2013-06-19 16:36:00,
2013-06-19 12:38:00,83.5,70.1,29.97,NE,53,0.0,6.0,64,0.00,,---,0.00,VWS V13.01,2013-06-19 16:38:00,
2013-06-19 12:39:00,83.5,69.1,29.96,NE,55,0.0,6.0,62,0.00,,---,0.00,VWS V13.01,2013-06-19 16:39:00,
2013-06-19 12:40:00,83.5,69.1,29.96,NE,55,0.0,6.0,62,0.00,,---,0.00,VWS V13.01,2013-06-19 16:40:00,
2013-06-19 12:41:00,83.5,69.1,29.96,NE,55,0.0,6.0,62,0.00,,---,0.00,VWS V13.01,2013-06-19 16:41:00,
2013-06-19 12:43:00,83.6,70.1,29.96,NE,55,0.0,6.0,64,0.00,,---,0.00,VWS V13.01,2013-06-19 16:43:00,
2013-06-19 12:44:00,83.6,69.2,29.96,NE,55,0.0,6.0,62,0.00,,---,0.00,VWS V13.01,2013-06-19 16:44:00,
2013-06-19 12:45:00,83.6,69.2,29.96,NE,55,0.0,6.0,62,0.00,,---,0.00,VWS V13.01,2013-06-19 16:45:00,
2013-06-19 12:46:00,83.7,69.3,29.97,ENE,68,5.0,6.0,62,0.00,,---,0.00,VWS V13.01,2013-06-19 16:46:00,
2013-06-19 12:48:00,83.7,70.2,29.97,ENE,65,4.0,6.0,64,0.00,,---,0.00,VWS V13.01,2013-06-19 16:48:00,
2013-06-19 12:50:00,83.7,69.8,29.97,ENE,64,0.0,6.0,63,0.00,,---,0.00,VWS V13.01,2013-06-19 16:50:00,
2013-06-19 12:51:00,83.8,70.3,29.97,ENE,65,0.0,6.0,64,0.00,,---,0.00,VWS V13.01,2013-06-19 16:51:00,
2013-06-19 12:53:00,83.7,69.3,29.97,ENE,65,0.0,6.0,62,0.00,,---,0.00,VWS V13.01,2013-06-19 16:53:00,
2013-06-19 12:55:00,83.7,69.3,29.97,ENE,68,0.0,6.0,62,0.00,,---,0.00,VWS V13.01,2013-06-19 16:55:00,
2013-06-19 12:56:00,83.8,70.3,29.97,ENE,69,1.0,6.0,64,0.00,,---,0.00,VWS V13.01,2013-06-19 16:56:00,
2013-06-19 12:58:00,83.7,70.2,29.97,ENE,60,4.0,6.0,64,0.00,,---,0.00,VWS V13.01,2013-06-19 16:58:00,
2013-06-19 13:00:00,83.6,69.7,29.97,ENE,67,1.0,6.0,63,0.00,,---,0.00,VWS V13.01,2013-06-19 17:00:00,
2013-06-19 13:01:00,83.6,70.1,29.97,ENE,67,0.0,0.0,64,0.00,,---,0.00,VWS V13.01,2013-06-19 17:01:00,
2013-06-19 13:03:00,83.4,68.6,29.97,ENE,67,0.0,2.0,61,0.00,,---,0.00,VWS V13.01,2013-06-19 17:03:00,
2013-06-19 13:05:00,83.3,69.4,29.97,NE,52,4.0,5.0,63,0.00,,---,0.00,VWS V13.01,2013-06-19 17:05:00,
2013-06-19 13:06:00,83.3,69.4,29.97,ENE,72,2.0,6.0,63,0.00,,---,0.00,VWS V13.01,2013-06-19 17:06:00,
2013-06-19 13:09:00,83.2,69.8,29.97,ENE,76,0.0,6.0,64,0.00,,---,0.00,VWS V13.01,2013-06-19 17:09:00,
2013-06-19 13:10:00,83.2,70.2,29.97,ENE,75,0.0,6.0,65,0.00,,---,0.00,VWS V13.01,2013-06-19 17:10:00,
2013-06-19 13:11:00,83.1,69.2,29.97,ENE,76,0.0,6.0,63,0.00,,---,0.00,VWS V13.01,2013-06-19 17:11:00,
2013-06-19 13:12:00,83.1,69.7,29.97,ENE,75,0.0,6.0,64,0.00,,---,0.00,VWS V13.01,2013-06-19 17:12:00,
2013-06-19 13:14:00,82.9,69.5,29.97,ENE,76,0.0,6.0,64,0.00,,---,0.00,VWS V13.01,2013-06-19 17:14:00,
2013-06-19 13:15:00,82.8,69.8,29.97,ENE,76,0.0,6.0,65,0.00,,---,0.00,VWS V13.01,2013-06-19 17:15:00,
2013-06-19 13:16:00,82.8,69.4,29.97,ENE,76,0.0,6.0,64,0.00,,---,0.00,VWS V13.01,2013-06-19 17:16:00,
2013-06-19 13:17:00,82.7,69.3,29.97,ENE,76,0.0,6.0,64,0.00,,---,0.00,VWS V13.01,2013-06-19 17:17:00,
2013-06-19 13:19:00,82.7,69.8,29.97,ENE,75,0.0,6.0,65,0.00,,---,0.00,VWS V13.01,2013-06-19 17:19:00,
2013-06-19 13:20:00,82.7,69.8,29.97,East,88,0.0,6.0,65,0.00,,---,0.00,VWS V13.01,2013-06-19 17:20:00,
2013-06-19 13:21:00,82.6,69.7,29.97,ENE,74,1.0,6.0,65,0.00,,---,0.00,VWS V13.01,2013-06-19 17:21:00,
2013-06-19 13:22:00,82.5,69.1,29.97,NNW,329,0.0,6.0,64,0.00,,---,0.00,VWS V13.01,2013-06-19 17:22:00,
2013-06-19 13:24:00,82.4,69.9,29.97,NNW,329,0.0,6.0,66,0.00,,---,0.00,VWS V13.01,2013-06-19 17:24:00,
2013-06-19 13:25:00,82.4,69.9,29.97,NNW,329,0.0,6.0,66,0.00,,---,0.00,VWS V13.01,2013-06-19 17:25:00,
2013-06-19 13:26:00,82.4,70.3,29.97,NNW,329,0.0,6.0,67,0.00,,---,0.00,VWS V13.01,2013-06-19 17:26:00,
2013-06-19 13:27:00,82.4,70.3,29.97,North,360,5.0,6.0,67,0.00,,---,0.00,VWS V13.01,2013-06-19 17:27:00,
2013-06-19 13:30:00,82.3,69.4,29.97,NNW,338,6.0,6.0,65,0.00,,---,0.00,VWS V13.01,2013-06-19 17:30:00,
2013-06-19 13:31:00,82.3,68.9,29.97,NNW,336,0.0,6.0,64,0.00,,---,0.00,VWS V13.01,2013-06-19 17:31:00,
2013-06-19 13:33:00,82.3,69.4,29.97,NNW,336,5.0,5.0,65,0.00,,---,0.00,VWS V13.01,2013-06-19 17:33:00,
2013-06-19 13:35:00,82.2,68.4,29.97,NNW,337,1.0,5.0,63,0.00,,---,0.00,VWS V13.01,2013-06-19 17:35:00,
2013-06-19 13:36:00,82.2,68.4,29.97,NNW,337,0.0,5.0,63,0.00,,---,0.00,VWS V13.01,2013-06-19 17:36:00,
2013-06-19 13:38:00,82.3,69.4,29.97,NNW,337,0.0,5.0,65,0.00,,---,0.00,VWS V13.01,2013-06-19 17:38:00,
2013-06-19 13:40:00,82.3,68.5,29.97,NE,36,0.0,5.0,63,0.00,,---,0.00,VWS V13.01,2013-06-19 17:40:00,
2013-06-19 13:41:00,82.3,68.5,29.97,NE,36,1.0,5.0,63,0.00,,---,0.00,VWS V13.01,2013-06-19 17:41:00,
2013-06-19 13:43:00,82.3,68.5,29.97,NE,36,0.0,5.0,63,0.00,,---,0.00,VWS V13.01,2013-06-19 17:43:00,
2013-06-19 13:45:00,82.4,69.5,29.97,NE,36,0.0,5.0,65,0.00,,---,0.00,VWS V13.01,2013-06-19 17:45:00,
2013-06-19 13:46:00,82.4,69.0,29.97,NE,36,0.0,5.0,64,0.00,,---,0.00,VWS V13.01,2013-06-19 17:46:00,
2013-06-19 13:48:00,82.5,69.6,29.97,NE,36,0.0,5.0,65,0.00,,---,0.00,VWS V13.01,2013-06-19 17:48:00,
2013-06-19 13:50:00,82.5,68.6,29.97,NE,36,0.0,5.0,63,0.00,,---,0.00,VWS V13.01,2013-06-19 17:50:00,
2013-06-19 13:51:00,82.5,69.1,29.97,NE,37,0.0,5.0,64,0.00,,---,0.00,VWS V13.01,2013-06-19 17:51:00,
2013-06-19 13:52:00,82.5,69.1,29.97,NE,37,0.0,5.0,64,0.00,,---,0.00,VWS V13.01,2013-06-19 17:52:00,
2013-06-19 13:53:00,82.6,69.2,29.97,NE,43,0.0,5.0,64,0.00,,---,0.00,VWS V13.01,2013-06-19 17:53:00,
2013-06-19 13:56:00,82.7,69.8,29.97,NE,45,1.0,5.0,65,0.00,,---,0.00,VWS V13.01,2013-06-19 17:56:00,
2013-06-19 13:57:00,82.7,69.3,29.97,NE,46,0.0,5.0,64,0.00,,---,0.00,VWS V13.01,2013-06-19 17:57:00,
2013-06-19 13:58:00,82.7,68.8,29.97,NE,45,0.0,5.0,63,0.00,,---,0.00,VWS V13.01,2013-06-19 17:58:00,
2013-06-19 14:01:00,82.9,69.9,29.97,NE,46,0.0,5.0,65,0.00,,---,0.00,VWS V13.01,2013-06-19 18:01:00,
2013-06-19 14:02:00,82.9,69.5,29.97,NE,42,1.0,2.0,64,0.00,,---,0.00,VWS V13.01,2013-06-19 18:02:00,
2013-06-19 14:03:00,83.0,69.6,29.97,NE,42,0.0,2.0,64,0.00,,---,0.00,VWS V13.01,2013-06-19 18:03:00,
2013-06-19 14:06:00,83.0,68.2,29.97,NE,42,0.0,2.0,61,0.00,,---,0.00,VWS V13.01,2013-06-19 18:06:00,
2013-06-19 14:07:00,83.0,69.1,29.97,NE,44,0.0,5.0,63,0.00,,---,0.00,VWS V13.01,2013-06-19 18:07:00,
2013-06-19 14:08:00,83.0,69.6,29.97,NE,47,2.0,5.0,64,0.00,,---,0.00,VWS V13.01,2013-06-19 18:08:00,
2013-06-19 14:11:00,83.0,68.2,29.97,ENE,63,0.0,6.0,61,0.00,,---,0.00,VWS V13.01,2013-06-19 18:11:00,
2013-06-19 14:12:00,83.0,68.7,29.97,ENE,66,3.0,6.0,62,0.00,,---,0.00,VWS V13.01,2013-06-19 18:12:00,
2013-06-19 14:14:00,83.0,69.1,29.97,ENE,69,6.0,7.0,63,0.00,,---,0.00,VWS V13.01,2013-06-19 18:14:00,
2013-06-19 14:16:00,83.0,69.1,29.97,ENE,71,4.0,7.0,63,0.00,,---,0.00,VWS V13.01,2013-06-19 18:16:00,
2013-06-19 14:17:00,83.0,69.1,29.97,ENE,71,0.0,7.0,63,0.00,,---,0.00,VWS V13.01,2013-06-19 18:17:00,
2013-06-19 14:18:00,83.0,69.6,29.97,ENE,65,1.0,7.0,64,0.00,,---,0.00,VWS V13.01,2013-06-19 18:18:00,
2013-06-19 14:19:00,83.0,69.6,29.97,ENE,65,4.0,7.0,64,0.00,,---,0.00,VWS V13.01,2013-06-19 18:19:00,
2013-06-19 14:21:00,83.0,68.7,29.97,ENE,61,0.0,7.0,62,0.00,,---,0.00,VWS V13.01,2013-06-19 18:21:00,
2013-06-19 14:22:00,83.0,68.7,29.97,NE,55,5.0,7.0,62,0.00,,---,0.00,VWS V13.01,2013-06-19 18:22:00,
2013-06-19 14:23:00,83.0,68.2,29.97,ENE,61,0.0,7.0,61,0.00,,---,0.00,VWS V13.01,2013-06-19 18:23:00,
2013-06-19 14:24:00,83.0,68.7,29.97,ENE,57,3.0,7.0,62,0.00,,---,0.00,VWS V13.01,2013-06-19 18:24:00,
2013-06-19 14:26:00,83.0,69.6,29.97,NE,48,5.0,7.0,64,0.00,,---,0.00,VWS V13.01,2013-06-19 18:26:00,
2013-06-19 14:27:00,83.0,68.7,29.97,NE,48,0.0,7.0,62,0.00,,---,0.00,VWS V13.01,2013-06-19 18:27:00,
2013-06-19 14:28:00,83.0,68.7,29.97,NE,48,3.0,7.0,62,0.00,,---,0.00,VWS V13.01,2013-06-19 18:28:00,
2013-06-19 14:29:00,83.0,68.7,29.97,NE,52,6.0,7.0,62,0.00,,---,0.00,VWS V13.01,2013-06-19 18:29:00,
2013-06-19 14:31:00,82.9,68.6,29.97,East,84,1.0,9.0,62,0.00,,---,0.00,VWS V13.01,2013-06-19 18:31:00,
2013-06-19 14:32:00,82.9,69.0,29.97,East,84,4.0,8.0,63,0.00,,---,0.00,VWS V13.01,2013-06-19 18:32:00,
2013-06-19 14:33:00,82.9,69.0,29.97,NE,56,2.0,8.0,63,0.00,,---,0.00,VWS V13.01,2013-06-19 18:33:00,
2013-06-19 14:35:00,82.8,68.9,29.97,ENE,72,0.0,8.0,63,0.00,,---,0.00,VWS V13.01,2013-06-19 18:35:00,
2013-06-19 14:36:00,82.8,68.9,29.97,ENE,60,5.0,8.0,63,0.00,,---,0.00,VWS V13.01,2013-06-19 18:36:00,
2013-06-19 14:37:00,82.8,68.5,29.97,NE,53,0.0,8.0,62,0.00,,---,0.00,VWS V13.01,2013-06-19 18:37:00,
2013-06-19 14:38:00,82.8,68.5,29.97,NE,53,0.0,8.0,62,0.00,,---,0.00,VWS V13.01,2013-06-19 18:38:00,
2013-06-19 14:40:00,82.8,68.5,29.97,ESE,122,0.0,8.0,62,0.00,,---,0.00,VWS V13.01,2013-06-19 18:40:00,
2013-06-19 14:41:00,82.8,68.5,29.97,ENE,63,0.0,8.0,62,0.00,,---,0.00,VWS V13.01,2013-06-19 18:41:00,
2013-06-19 14:42:00,82.7,68.4,29.97,ENE,63,0.0,8.0,62,0.00,,---,0.00,VWS V13.01,2013-06-19 18:42:00,
2013-06-19 14:43:00,82.7,68.4,29.97,ENE,63,0.0,8.0,62,0.00,,---,0.00,VWS V13.01,2013-06-19 18:43:00,
2013-06-19 14:45:00,82.7,68.8,29.97,ENE,76,2.0,10.0,63,0.00,,---,0.00,VWS V13.01,2013-06-19 18:45:00,
2013-06-19 14:47:00,82.7,68.8,29.97,NE,56,3.0,10.0,63,0.00,,---,0.00,VWS V13.01,2013-06-19 18:47:00,
2013-06-19 14:48:00,82.6,68.3,29.97,NNE,32,3.0,10.0,62,0.00,,---,0.00,VWS V13.01,2013-06-19 18:48:00,
2013-06-19 14:50:00,82.4,68.6,29.97,ENE,61,2.0,10.0,63,0.00,,---,0.00,VWS V13.01,2013-06-19 18:50:00,
2013-06-19 14:52:00,82.4,68.1,29.97,NE,45,0.0,10.0,62,0.00,,---,0.00,VWS V13.01,2013-06-19 18:52:00,
2013-06-19 14:53:00,82.4,68.1,29.97,NE,44,1.0,10.0,62,0.00,,---,0.00,VWS V13.01,2013-06-19 18:53:00,
2013-06-19 14:56:00,82.4,69.0,29.97,NNE,15,2.0,10.0,64,0.00,,---,0.00,VWS V13.01,2013-06-19 18:56:00,
2013-06-19 14:57:00,82.3,68.9,29.97,NNE,15,1.0,10.0,64,0.00,,---,0.00,VWS V13.01,2013-06-19 18:57:00,
2013-06-19 14:58:00,82.3,68.9,29.97,NNE,29,3.0,10.0,64,0.00,,---,0.00,VWS V13.01,2013-06-19 18:58:00,
2013-06-19 15:01:00,82.3,68.9,29.97,NE,55,0.0,10.0,64,0.00,,---,0.00,VWS V13.01,2013-06-19 19:01:00,
2013-06-19 15:02:00,82.3,69.8,29.97,NE,56,0.0,0.0,66,0.00,,---,0.00,VWS V13.01,2013-06-19 19:02:00,
2013-06-19 15:03:00,82.3,69.8,29.97,NE,49,1.0,1.0,66,0.00,,---,0.00,VWS V13.01,2013-06-19 19:03:00,
2013-06-19 15:04:00,82.3,69.8,29.97,NE,49,0.0,4.0,66,0.00,,---,0.00,VWS V13.01,2013-06-19 19:04:00,
2013-06-19 15:06:00,82.1,68.3,29.97,NE,47,0.0,4.0,63,0.00,,---,0.00,VWS V13.01,2013-06-19 19:06:00,
2013-06-19 15:07:00,82.1,68.3,29.97,ENE,63,3.0,6.0,63,0.00,,---,0.00,VWS V13.01,2013-06-19 19:07:00,
2013-06-19 15:08:00,82.0,68.2,29.97,ENE,63,0.0,6.0,63,0.00,,---,0.00,VWS V13.01,2013-06-19 19:08:00,
2013-06-19 15:09:00,82.0,68.2,29.97,ENE,63,0.0,6.0,63,0.00,,---,0.00,VWS V13.01,2013-06-19 19:09:00,
2013-06-19 15:11:00,81.9,69.0,29.97,ENE,63,0.0,6.0,65,0.00,,---,0.00,VWS V13.01,2013-06-19 19:11:00,
2013-06-19 15:12:00,81.8,68.9,29.97,ENE,63,0.0,6.0,65,0.00,,---,0.00,VWS V13.01,2013-06-19 19:12:00,
2013-06-19 15:13:00,81.8,68.9,29.97,ENE,60,0.0,6.0,65,0.00,,---,0.00,VWS V13.01,2013-06-19 19:13:00,
2013-06-19 15:14:00,81.8,68.9,29.97,ENE,60,2.0,6.0,65,0.00,,---,0.00,VWS V13.01,2013-06-19 19:14:00,
2013-06-19 15:16:00,81.7,69.7,29.97,East,80,0.0,6.0,67,0.00,,---,0.00,VWS V13.01,2013-06-19 19:16:00,
2013-06-19 15:17:00,81.7,70.1,29.97,East,81,0.0,6.0,68,0.00,,---,0.00,VWS V13.01,2013-06-19 19:17:00,
2013-06-19 15:18:00,81.7,68.8,29.97,East,80,0.0,6.0,65,0.00,,---,0.00,VWS V13.01,2013-06-19 19:18:00,
2013-06-19 15:19:00,81.6,68.7,29.97,East,80,0.0,6.0,65,0.00,,---,0.00,VWS V13.01,2013-06-19 19:19:00,
2013-06-19 15:20:00,81.6,68.7,29.97,East,80,0.0,6.0,65,0.00,,---,0.00,VWS V13.01,2013-06-19 19:20:00,
2013-06-19 15:21:00,81.5,69.1,29.97,NNE,18,0.0,6.0,66,0.00,,---,0.00,VWS V13.01,2013-06-19 19:21:00,
2013-06-19 15:22:00,81.5,68.2,29.97,North,360,0.0,6.0,64,0.00,,---,0.00,VWS V13.01,2013-06-19 19:22:00,
2013-06-19 15:23:00,81.5,68.6,29.97,NNE,15,0.0,6.0,65,0.00,,---,0.00,VWS V13.01,2013-06-19 19:23:00,
2013-06-19 15:25:00,81.4,68.5,29.97,NE,52,3.0,7.0,65,0.00,,---,0.00,VWS V13.01,2013-06-19 19:25:00,
2013-06-19 15:26:00,81.4,68.5,29.97,NE,49,0.0,7.0,65,0.00,,---,0.00,VWS V13.01,2013-06-19 19:26:00,
2013-06-19 15:27:00,81.3,68.9,29.97,NE,49,0.0,7.0,66,0.00,,---,0.00,VWS V13.01,2013-06-19 19:27:00,
2013-06-19 15:29:00,81.4,70.3,29.97,ENE,57,0.0,7.0,69,0.00,,---,0.00,VWS V13.01,2013-06-19 19:29:00,
2013-06-19 15:30:00,81.3,69.3,29.97,ENE,58,2.0,7.0,67,0.00,,---,0.00,VWS V13.01,2013-06-19 19:30:00,
2013-06-19 15:31:00,81.3,69.3,29.97,ENE,58,0.0,0.0,67,0.00,,---,0.00,VWS V13.01,2013-06-19 19:31:00,
2013-06-19 15:33:00,81.3,69.3,29.97,NE,53,0.0,4.0,67,0.00,,---,0.00,VWS V13.01,2013-06-19 19:33:00,
2013-06-19 15:34:00,81.3,69.3,29.97,NE,51,2.0,4.0,67,0.00,,---,0.00,VWS V13.01,2013-06-19 19:34:00,
2013-06-19 15:35:00,81.3,69.3,29.97,NE,50,2.0,4.0,67,0.00,,---,0.00,VWS V13.01,2013-06-19 19:35:00,
2013-06-19 15:37:00,81.2,69.6,29.97,NNE,29,0.0,8.0,68,0.00,,---,0.00,VWS V13.01,2013-06-19 19:37:00,
2013-06-19 15:38:00,81.2,68.8,29.97,NNE,32,1.0,8.0,66,0.00,,---,0.00,VWS V13.01,2013-06-19 19:38:00,
2013-06-19 15:39:00,81.1,68.7,29.96,NE,41,2.0,8.0,66,0.00,,---,0.00,VWS V13.01,2013-06-19 19:39:00,
2013-06-19 15:40:00,81.1,69.1,29.96,NE,41,0.0,8.0,67,0.00,,---,0.00,VWS V13.01,2013-06-19 19:40:00,
2013-06-19 15:42:00,81.1,69.1,29.96,NE,44,3.0,8.0,67,0.00,,---,0.00,VWS V13.01,2013-06-19 19:42:00,
2013-06-19 15:43:00,81.1,69.1,29.96,ENE,63,1.0,8.0,67,0.00,,---,0.00,VWS V13.01,2013-06-19 19:43:00,
2013-06-19 15:45:00,81.0,69.0,29.96,ENE,63,4.0,8.0,67,0.00,,---,0.00,VWS V13.01,2013-06-19 19:45:00,
2013-06-19 15:47:00,81.0,69.0,29.97,NE,39,1.0,8.0,67,0.00,,---,0.00,VWS V13.01,2013-06-19 19:47:00,
2013-06-19 15:48:00,81.0,69.0,29.96,NNE,22,0.0,8.0,67,0.00,,---,0.00,VWS V13.01,2013-06-19 19:48:00,
2013-06-19 15:50:00,81.0,69.0,29.96,NNE,25,0.0,8.0,67,0.00,,---,0.00,VWS V13.01,2013-06-19 19:50:00,
2013-06-19 15:52:00,81.0,69.4,29.96,ENE,61,0.0,8.0,68,0.00,,---,0.00,VWS V13.01,2013-06-19 19:52:00,
2013-06-19 15:53:00,81.0,69.4,29.96,ENE,63,5.0,8.0,68,0.00,,---,0.00,VWS V13.01,2013-06-19 19:53:00,
2013-06-19 15:55:00,80.9,68.9,29.96,East,96,1.0,9.0,67,0.00,,---,0.00,VWS V13.01,2013-06-19 19:55:00,
2013-06-19 15:56:00,80.9,68.9,29.97,ENE,74,2.0,9.0,67,0.00,,---,0.00,VWS V13.01,2013-06-19 19:56:00,
2013-06-19 15:57:00,80.9,69.4,29.96,ENE,74,0.0,9.0,68,0.00,,---,0.00,VWS V13.01,2013-06-19 19:57:00,
2013-06-19 15:58:00,80.9,69.4,29.96,ENE,74,4.0,9.0,68,0.00,,---,0.00,VWS V13.01,2013-06-19 19:58:00,
2013-06-19 16:00:00,80.8,69.3,29.96,NE,53,6.0,9.0,68,0.00,,---,0.00,VWS V13.01,2013-06-19 20:00:00,
2013-06-19 16:01:00,80.8,69.3,29.96,ENE,68,4.0,9.0,68,0.00,,---,0.00,VWS V13.01,2013-06-19 20:01:00,
2013-06-19 16:02:00,80.8,69.3,29.96,NE,47,7.0,9.0,68,0.00,,---,0.00,VWS V13.01,2013-06-19 20:02:00,
2013-06-19 16:03:00,80.7,69.6,29.96,ENE,71,0.0,9.0,69,0.00,,---,0.00,VWS V13.01,2013-06-19 20:03:00,
2013-06-19 16:05:00,80.7,69.2,29.96,ENE,67,5.0,9.0,68,0.00,,---,0.00,VWS V13.01,2013-06-19 20:05:00,
2013-06-19 16:06:00,80.7,69.2,29.96,ENE,67,1.0,9.0,68,0.00,,---,0.00,VWS V13.01,2013-06-19 20:06:00,
2013-06-19 16:07:00,80.7,70.0,29.96,SSE,148,4.0,9.0,70,0.00,,---,0.00,VWS V13.01,2013-06-19 20:07:00,
2013-06-19 16:09:00,80.6,69.1,29.96,East,96,2.0,9.0,68,0.00,,---,0.00,VWS V13.01,2013-06-19 20:09:00,
2013-06-19 16:10:00,80.6,69.5,29.96,ENE,69,3.0,9.0,69,0.00,,---,0.00,VWS V13.01,2013-06-19 20:10:00,
2013-06-19 16:11:00,80.6,69.5,29.96,East,99,0.0,9.0,69,0.00,,---,0.00,VWS V13.01,2013-06-19 20:11:00,
2013-06-19 16:12:00,80.6,69.5,29.96,East,101,1.0,9.0,69,0.00,,---,0.00,VWS V13.01,2013-06-19 20:12:00,
2013-06-19 16:14:00,80.6,69.5,29.96,East,79,4.0,9.0,69,0.00,,---,0.00,VWS V13.01,2013-06-19 20:14:00,
2013-06-19 16:15:00,80.6,68.6,29.96,ENE,65,0.0,9.0,67,0.00,,---,0.00,VWS V13.01,2013-06-19 20:15:00,
2013-06-19 16:16:00,80.5,68.5,29.96,East,101,1.0,9.0,67,0.00,,---,0.00,VWS V13.01,2013-06-19 20:16:00,
2013-06-19 16:17:00,80.5,69.0,29.96,ENE,70,4.0,9.0,68,0.00,,---,0.00,VWS V13.01,2013-06-19 20:17:00,
2013-06-19 16:19:00,80.5,69.4,29.96,NE,46,3.0,9.0,69,0.00,,---,0.00,VWS V13.01,2013-06-19 20:19:00,
2013-06-19 16:21:00,80.4,68.4,29.96,ENE,57,5.0,9.0,67,0.00,,---,0.00,VWS V13.01,2013-06-19 20:21:00,
2013-06-19 16:22:00,80.4,68.4,29.96,East,90,3.0,9.0,67,0.00,,---,0.00,VWS V13.01,2013-06-19 20:22:00,
2013-06-19 16:24:00,80.3,68.3,29.96,ENE,75,0.0,9.0,67,0.00,,---,0.00,VWS V13.01,2013-06-19 20:24:00,
2013-06-19 16:26:00,80.2,68.3,29.96,East,92,0.0,9.0,67,0.00,,---,0.00,VWS V13.01,2013-06-19 20:26:00,
2013-06-19 16:27:00,80.2,68.7,29.96,East,92,0.0,9.0,68,0.00,,---,0.00,VWS V13.01,2013-06-19 20:27:00,
2013-06-19 16:28:00,80.2,69.1,29.96,ENE,75,1.0,9.0,69,0.00,,---,0.00,VWS V13.01,2013-06-19 20:28:00,
2013-06-19 16:29:00,80.2,69.5,29.96,ENE,72,0.0,9.0,70,0.00,,---,0.00,VWS V13.01,2013-06-19 20:29:00,
2013-06-19 16:31:00,80.2,69.1,29.96,ENE,70,2.0,9.0,69,0.00,,---,0.00,VWS V13.01,2013-06-19 20:31:00,
2013-06-19 16:32:00,80.2,69.1,29.96,East,90,0.0,0.0,69,0.00,,---,0.00,VWS V13.01,2013-06-19 20:32:00,
2013-06-19 16:33:00,80.2,69.1,29.96,ENE,65,4.0,6.0,69,0.00,,---,0.00,VWS V13.01,2013-06-19 20:33:00,
2013-06-19 16:35:00,80.1,69.0,29.96,ENE,61,5.0,6.0,69,0.00,,---,0.00,VWS V13.01,2013-06-19 20:35:00,
2013-06-19 16:36:00,80.1,69.4,29.96,NE,53,2.0,6.0,70,0.00,,---,0.00,VWS V13.01,2013-06-19 20:36:00,
2013-06-19 16:37:00,80.0,68.9,29.96,NE,56,1.0,6.0,69,0.00,,---,0.00,VWS V13.01,2013-06-19 20:37:00,
2013-06-19 16:39:00,80.0,68.5,29.96,NNE,29,3.0,6.0,68,0.00,,---,0.00,VWS V13.01,2013-06-19 20:39:00,
2013-06-19 16:40:00,79.9,68.4,29.96,NE,48,1.0,6.0,68,0.00,,---,0.00,VWS V13.01,2013-06-19 20:40:00,
2013-06-19 16:41:00,79.9,68.4,29.96,ENE,59,2.0,6.0,68,0.00,,---,0.00,VWS V13.01,2013-06-19 20:41:00,
2013-06-19 16:42:00,79.8,68.3,29.96,ENE,64,0.0,6.0,68,0.00,,---,0.00,VWS V13.01,2013-06-19 20:42:00,
2013-06-19 16:44:00,79.8,68.7,29.96,ENE,63,7.0,9.0,69,0.00,,---,0.00,VWS V13.01,2013-06-19 20:44:00,
2013-06-19 16:45:00,79.8,68.7,29.96,ENE,60,1.0,9.0,69,0.00,,---,0.00,VWS V13.01,2013-06-19 20:45:00,
2013-06-19 16:46:00,79.8,69.2,29.96,ENE,60,0.0,9.0,70,0.00,,---,0.00,VWS V13.01,2013-06-19 20:46:00,
2013-06-19 16:47:00,79.8,69.2,29.96,ENE,65,1.0,9.0,70,0.00,,---,0.00,VWS V13.01,2013-06-19 20:47:00,
2013-06-19 16:49:00,79.7,69.1,29.96,East,91,0.0,9.0,70,0.00,,---,0.00,VWS V13.01,2013-06-19 20:49:00,
2013-06-19 16:50:00,79.7,69.1,29.95,East,83,0.0,9.0,70,0.00,,---,0.00,VWS V13.01,2013-06-19 20:50:00,
2013-06-19 16:51:00,79.7,69.5,29.95,ENE,76,0.0,9.0,71,0.00,,---,0.00,VWS V13.01,2013-06-19 20:51:00,
2013-06-19 16:53:00,79.7,69.5,29.95,ENE,59,1.0,9.0,71,0.00,,---,0.00,VWS V13.01,2013-06-19 20:53:00,
2013-06-19 16:54:00,79.7,69.5,29.95,NE,53,1.0,9.0,71,0.00,,---,0.00,VWS V13.01,2013-06-19 20:54:00,
2013-06-19 16:55:00,79.7,68.6,29.96,East,84,0.0,9.0,69,0.00,,---,0.00,VWS V13.01,2013-06-19 20:55:00,
2013-06-19 16:56:00,79.7,68.6,29.96,NNE,32,5.0,9.0,69,0.00,,---,0.00,VWS V13.01,2013-06-19 20:56:00,
2013-06-19 16:57:00,79.6,68.5,29.96,ESE,123,0.0,9.0,69,0.00,,---,0.00,VWS V13.01,2013-06-19 20:57:00,
2013-06-19 16:58:00,79.6,68.1,29.96,East,92,0.0,9.0,68,0.00,,---,0.00,VWS V13.01,2013-06-19 20:58:00,
2013-06-19 16:59:00,79.6,68.5,29.96,ENE,74,0.0,9.0,69,0.00,,---,0.00,VWS V13.01,2013-06-19 20:59:00,
2013-06-19 17:01:00,79.6,68.1,29.96,SE,126,0.0,9.0,68,0.00,,---,0.00,VWS V13.01,2013-06-19 21:01:00,
2013-06-19 17:02:00,79.6,68.5,29.96,ENE,59,0.0,7.0,69,0.00,,---,0.00,VWS V13.01,2013-06-19 21:02:00,
2013-06-19 17:03:00,79.6,68.5,29.96,ENE,59,0.0,7.0,69,0.00,,---,0.00,VWS V13.01,2013-06-19 21:03:00,
2013-06-19 17:04:00,79.6,68.5,29.96,ENE,68,0.0,7.0,69,0.00,,---,0.00,VWS V13.01,2013-06-19 21:04:00,
2013-06-19 17:06:00,79.6,69.0,29.96,ESE,102,5.0,7.0,70,0.00,,---,0.00,VWS V13.01,2013-06-19 21:06:00,
2013-06-19 17:07:00,79.6,69.4,29.96,NE,51,0.0,7.0,71,0.00,,---,0.00,VWS V13.01,2013-06-19 21:07:00,
2013-06-19 17:08:00,79.6,69.0,29.96,ESE,107,3.0,7.0,70,0.00,,---,0.00,VWS V13.01,2013-06-19 21:08:00,
2013-06-19 17:09:00,79.5,68.9,29.96,NE,42,3.0,7.0,70,0.00,,---,0.00,VWS V13.01,2013-06-19 21:09:00,
2013-06-19 17:11:00,79.6,69.4,29.96,NE,42,0.0,7.0,71,0.00,,---,0.00,VWS V13.01,2013-06-19 21:11:00,
2013-06-19 17:12:00,79.6,69.4,29.96,NE,42,0.0,7.0,71,0.00,,---,0.00,VWS V13.01,2013-06-19 21:12:00,
2013-06-19 17:13:00,79.6,69.8,29.96,NE,42,0.0,7.0,72,0.00,,---,0.00,VWS V13.01,2013-06-19 21:13:00,
2013-06-19 17:14:00,79.6,69.8,29.96,NE,42,0.0,7.0,72,0.00,,---,0.00,VWS V13.01,2013-06-19 21:14:00,
2013-06-19 17:17:00,79.6,70.2,29.96,East,81,5.0,7.0,73,0.00,,---,0.00,VWS V13.01,2013-06-19 21:17:00,
2013-06-19 17:18:00,79.6,69.8,29.96,ENE,64,2.0,7.0,72,0.00,,---,0.00,VWS V13.01,2013-06-19 21:18:00,
2013-06-19 17:19:00,79.6,69.4,29.96,NE,46,4.0,7.0,71,0.00,,---,0.00,VWS V13.01,2013-06-19 21:19:00,
2013-06-19 17:22:00,79.5,68.9,29.96,NE,49,0.0,10.0,70,0.00,,---,0.00,VWS V13.01,2013-06-19 21:22:00,
2013-06-19 17:23:00,79.5,69.3,29.96,ENE,60,3.0,10.0,71,0.00,,---,0.00,VWS V13.01,2013-06-19 21:23:00,
2013-06-19 17:25:00,79.5,68.9,29.96,NE,48,0.0,10.0,70,0.00,,---,0.00,VWS V13.01,2013-06-19 21:25:00,
2013-06-19 17:27:00,79.5,69.3,29.96,ENE,69,1.0,10.0,71,0.00,,---,0.00,VWS V13.01,2013-06-19 21:27:00,
2013-06-19 17:28:00,79.4,68.8,29.96,NE,52,2.0,10.0,70,0.00,,---,0.00,VWS V13.01,2013-06-19 21:28:00,
2013-06-19 17:30:00,79.4,69.2,29.96,ENE,71,0.0,10.0,71,0.00,,---,0.00,VWS V13.01,2013-06-19 21:30:00,
2013-06-19 17:32:00,79.4,69.6,29.96,NE,46,2.0,9.0,72,0.00,,---,0.00,VWS V13.01,2013-06-19 21:32:00,
2013-06-19 17:33:00,79.3,69.1,29.96,ENE,72,1.0,9.0,71,0.00,,---,0.00,VWS V13.01,2013-06-19 21:33:00,
2013-06-19 17:35:00,79.3,69.5,29.96,East,79,0.0,9.0,72,0.00,,---,0.00,VWS V13.01,2013-06-19 21:35:00,
2013-06-19 17:37:00,79.3,69.5,29.96,NE,41,1.0,9.0,72,0.00,,---,0.00,VWS V13.01,2013-06-19 21:37:00,
2013-06-19 17:38:00,79.3,69.5,29.96,NE,40,0.0,9.0,72,0.00,,---,0.00,VWS V13.01,2013-06-19 21:38:00,
2013-06-19 17:40:00,79.3,69.9,29.96,ENE,63,9.0,9.0,73,0.00,,---,0.00,VWS V13.01,2013-06-19 21:40:00,
2013-06-19 17:43:00,79.3,69.9,29.96,NE,56,5.0,10.0,73,0.00,,---,0.00,VWS V13.01,2013-06-19 21:43:00,
2013-06-19 17:44:00,79.3,69.9,29.96,NE,53,0.0,10.0,73,0.00,,---,0.00,VWS V13.01,2013-06-19 21:44:00,
2013-06-19 17:46:00,79.3,69.9,29.97,ENE,64,3.0,10.0,73,0.00,,---,0.00,VWS V13.01,2013-06-19 21:46:00,
2013-06-19 17:48:00,79.2,69.8,29.97,ENE,59,0.0,10.0,73,0.00,,---,0.00,VWS V13.01,2013-06-19 21:48:00,
2013-06-19 17:49:00,79.2,69.8,29.97,ENE,59,2.0,10.0,73,0.00,,---,0.00,VWS V13.01,2013-06-19 21:49:00,
2013-06-19 17:51:00,79.2,70.2,29.97,ENE,57,0.0,10.0,74,0.00,,---,0.00,VWS V13.01,2013-06-19 21:51:00,
2013-06-19 17:53:00,79.2,69.8,29.97,ENE,66,0.0,10.0,73,0.00,,---,0.00,VWS V13.01,2013-06-19 21:53:00,
2013-06-19 17:54:00,79.2,69.8,29.97,ENE,66,5.0,10.0,73,0.00,,---,0.00,VWS V13.01,2013-06-19 21:54:00,
2013-06-19 17:56:00,79.1,69.7,29.97,NE,51,2.0,11.0,73,0.00,,---,0.00,VWS V13.01,2013-06-19 21:56:00,
2013-06-19 17:58:00,79.0,70.0,29.97,NE,46,0.0,11.0,74,0.00,,---,0.00,VWS V13.01,2013-06-19 21:58:00,
2013-06-19 17:59:00,79.0,70.0,29.97,ENE,60,0.0,11.0,74,0.00,,---,0.00,VWS V13.01,2013-06-19 21:59:00,
2013-06-19 18:01:00,78.9,69.9,29.97,SE,130,0.0,11.0,74,0.00,,---,0.00,VWS V13.01,2013-06-19 22:01:00,
2013-06-19 18:03:00,78.9,69.5,29.97,NE,46,0.0,5.0,73,0.00,,---,0.00,VWS V13.01,2013-06-19 22:03:00,
2013-06-19 18:04:00,78.8,69.4,29.97,NE,51,4.0,6.0,73,0.00,,---,0.00,VWS V13.01,2013-06-19 22:04:00,
2013-06-19 18:06:00,78.7,68.9,29.97,ENE,78,0.0,6.0,72,0.00,,---,0.00,VWS V13.01,2013-06-19 22:06:00,
2013-06-19 18:08:00,78.7,68.9,29.97,ENE,60,5.0,6.0,72,0.00,,---,0.00,VWS V13.01,2013-06-19 22:08:00,
2013-06-19 18:10:00,78.7,69.3,29.97,ENE,65,0.0,6.0,73,0.00,,---,0.00,VWS V13.01,2013-06-19 22:10:00,
2013-06-19 18:11:00,78.7,69.3,29.97,ENE,61,1.0,6.0,73,0.00,,---,0.00,VWS V13.01,2013-06-19 22:11:00,
2013-06-19 18:13:00,78.6,68.8,29.97,ENE,61,0.0,6.0,72,0.00,,---,0.00,VWS V13.01,2013-06-19 22:13:00,
2013-06-19 18:15:00,78.6,68.8,29.97,East,95,3.0,7.0,72,0.00,,---,0.00,VWS V13.01,2013-06-19 22:15:00,
2013-06-19 18:16:00,78.6,68.8,29.97,East,87,3.0,7.0,72,0.00,,---,0.00,VWS V13.01,2013-06-19 22:16:00,
2013-06-19 18:18:00,78.6,68.8,29.97,ENE,63,1.0,7.0,72,0.00,,---,0.00,VWS V13.01,2013-06-19 22:18:00,
2013-06-19 18:19:00,78.5,68.7,29.97,East,94,1.0,7.0,72,0.00,,---,0.00,VWS V13.01,2013-06-19 22:19:00,
2013-06-19 18:20:00,78.6,68.8,29.97,East,94,0.0,7.0,72,0.00,,---,0.00,VWS V13.01,2013-06-19 22:20:00,
2013-06-19 18:21:00,78.5,68.7,29.97,East,92,0.0,7.0,72,0.00,,---,0.00,VWS V13.01,2013-06-19 22:21:00,
2013-06-19 18:23:00,78.6,69.6,29.98,East,93,0.0,7.0,74,0.00,,---,0.00,VWS V13.01,2013-06-19 22:23:00,
2013-06-19 18:24:00,78.6,69.6,29.98,East,93,0.0,7.0,74,0.00,,---,0.00,VWS V13.01,2013-06-19 22:24:00,
2013-06-19 18:25:00,78.6,69.6,29.97,East,94,0.0,7.0,74,0.00,,---,0.00,VWS V13.01,2013-06-19 22:25:00,
2013-06-19 18:26:00,78.6,69.2,29.97,ESE,106,0.0,7.0,73,0.00,,---,0.00,VWS V13.01,2013-06-19 22:26:00,
2013-06-19 18:28:00,78.6,68.8,29.97,NE,45,0.0,7.0,72,0.00,,---,0.00,VWS V13.01,2013-06-19 22:28:00,
2013-06-19 18:29:00,78.6,68.8,29.97,SE,125,5.0,7.0,72,0.00,,---,0.00,VWS V13.01,2013-06-19 22:29:00,
2013-06-19 18:30:00,78.6,68.4,29.97,ESE,106,2.0,7.0,71,0.00,,---,0.00,VWS V13.01,2013-06-19 22:30:00,
2013-06-19 18:31:00,78.5,68.7,29.97,East,81,0.0,0.0,72,0.00,,---,0.00,VWS V13.01,2013-06-19 22:31:00,
2013-06-19 18:34:00,78.5,69.1,29.97,ESE,103,0.0,3.0,73,0.00,,---,0.00,VWS V13.01,2013-06-19 22:34:00,
2013-06-19 18:35:00,78.5,69.1,29.98,ESE,104,0.0,3.0,73,0.00,,---,0.00,VWS V13.01,2013-06-19 22:35:00,
2013-06-19 18:36:00,78.5,69.1,29.98,ESE,104,0.0,3.0,73,0.00,,---,0.00,VWS V13.01,2013-06-19 22:36:00,
2013-06-19 18:39:00,78.5,69.1,29.98,ESE,119,0.0,3.0,73,0.00,,---,0.00,VWS V13.01,2013-06-19 22:39:00,
2013-06-19 18:40:00,78.5,69.1,29.98,SE,140,1.0,5.0,73,0.00,,---,0.00,VWS V13.01,2013-06-19 22:40:00,
2013-06-19 18:41:00,78.5,69.1,29.97,ESE,114,0.0,5.0,73,0.00,,---,0.00,VWS V13.01,2013-06-19 22:41:00,
2013-06-19 18:42:00,78.4,69.0,29.98,ESE,111,0.0,5.0,73,0.00,,---,0.00,VWS V13.01,2013-06-19 22:42:00,
2013-06-19 18:44:00,78.4,68.6,29.98,SE,146,0.0,5.0,72,0.00,,---,0.00,VWS V13.01,2013-06-19 22:44:00,
2013-06-19 18:45:00,78.4,68.6,29.98,SE,146,0.0,5.0,72,0.00,,---,0.00,VWS V13.01,2013-06-19 22:45:00,
2013-06-19 18:46:00,78.4,69.0,29.98,ESE,109,5.0,6.0,73,0.00,,---,0.00,VWS V13.01,2013-06-19 22:46:00,
2013-06-19 18:47:00,78.4,68.6,29.98,East,79,0.0,7.0,72,0.00,,---,0.00,VWS V13.01,2013-06-19 22:47:00,
2013-06-19 18:49:00,78.3,68.5,29.98,ENE,63,1.0,7.0,72,0.00,,---,0.00,VWS V13.01,2013-06-19 22:49:00,
2013-06-19 18:50:00,78.3,68.5,29.98,ENE,73,4.0,7.0,72,0.00,,---,0.00,VWS V13.01,2013-06-19 22:50:00,
2013-06-19 18:51:00,78.2,68.4,29.98,SE,133,0.0,7.0,72,0.00,,---,0.00,VWS V13.01,2013-06-19 22:51:00,
2013-06-19 18:52:00,78.2,68.4,29.98,ENE,68,0.0,7.0,72,0.00,,---,0.00,VWS V13.01,2013-06-19 22:52:00,
2013-06-19 18:54:00,78.2,68.4,29.98,ENE,78,0.0,7.0,72,0.00,,---,0.00,VWS V13.01,2013-06-19 22:54:00,
2013-06-19 18:55:00,78.2,68.8,29.98,ENE,66,1.0,7.0,73,0.00,,---,0.00,VWS V13.01,2013-06-19 22:55:00,
2013-06-19 18:56:00,78.1,68.8,29.98,ENE,58,5.0,7.0,73,0.00,,---,0.00,VWS V13.01,2013-06-19 22:56:00,
2013-06-19 18:57:00,78.1,68.3,29.98,ENE,59,3.0,7.0,72,0.00,,---,0.00,VWS V13.01,2013-06-19 22:57:00,
2013-06-19 18:59:00,78.0,68.2,29.99,NE,55,2.0,7.0,72,0.00,,---,0.00,VWS V13.01,2013-06-19 22:59:00,
2013-06-19 19:00:00,78.0,68.2,29.99,NE,35,6.0,7.0,72,0.00,,---,0.00,VWS V13.01,2013-06-19 23:00:00,
2013-06-19 19:01:00,78.0,68.2,29.99,NE,39,0.0,7.0,72,0.00,,---,0.00,VWS V13.01,2013-06-19 23:01:00,
2013-06-19 19:02:00,78.0,68.2,29.99,NE,38,0.0,0.0,72,0.00,,---,0.00,VWS V13.01,2013-06-19 23:02:00,
2013-06-19 19:04:00,77.9,68.6,29.99,NE,40,1.0,1.0,73,0.00,,---,0.00,VWS V13.01,2013-06-19 23:04:00,
2013-06-19 19:05:00,77.9,68.9,29.99,NE,40,0.0,1.0,74,0.00,,---,0.00,VWS V13.01,2013-06-19 23:05:00,
2013-06-19 19:06:00,77.9,68.9,29.99,NE,46,0.0,3.0,74,0.00,,---,0.00,VWS V13.01,2013-06-19 23:06:00,
2013-06-19 19:07:00,77.9,68.9,29.99,NE,45,0.0,3.0,74,0.00,,---,0.00,VWS V13.01,2013-06-19 23:07:00,
2013-06-19 19:09:00,77.9,68.9,29.99,ESE,111,0.0,4.0,74,0.00,,---,0.00,VWS V13.01,2013-06-19 23:09:00,
2013-06-19 19:10:00,77.8,68.9,29.99,ESE,111,0.0,4.0,74,0.00,,---,0.00,VWS V13.01,2013-06-19 23:10:00,
2013-06-19 19:11:00,77.8,68.9,29.99,ESE,111,0.0,4.0,74,0.00,,---,0.00,VWS V13.01,2013-06-19 23:11:00,
2013-06-19 19:12:00,77.8,68.9,29.99,East,97,4.0,4.0,74,0.00,,---,0.00,VWS V13.01,2013-06-19 23:12:00,
2013-06-19 19:14:00,77.7,68.4,29.99,ENE,75,0.0,4.0,73,0.00,,---,0.00,VWS V13.01,2013-06-19 23:14:00,
2013-06-19 19:15:00,77.7,68.4,29.99,ENE,74,1.0,4.0,73,0.00,,---,0.00,VWS V13.01,2013-06-19 23:15:00,
2013-06-19 19:16:00,77.7,68.8,29.99,NE,53,4.0,7.0,74,0.00,,---,0.00,VWS V13.01,2013-06-19 23:16:00,
2013-06-19 19:17:00,77.6,68.3,29.99,ENE,61,4.0,7.0,73,0.00,,---,0.00,VWS V13.01,2013-06-19 23:17:00,
2013-06-19 19:19:00,77.5,68.6,29.99,ENE,64,0.0,7.0,74,0.00,,---,0.00,VWS V13.01,2013-06-19 23:19:00,
2013-06-19 19:20:00,77.5,68.6,29.99,ENE,65,0.0,7.0,74,0.00,,---,0.00,VWS V13.01,2013-06-19 23:20:00,
2013-06-19 19:21:00,77.5,68.6,29.99,ENE,64,0.0,7.0,74,0.00,,---,0.00,VWS V13.01,2013-06-19 23:21:00,
2013-06-19 19:22:00,77.5,68.6,29.99,ENE,65,0.0,7.0,74,0.00,,---,0.00,VWS V13.01,2013-06-19 23:22:00,
2013-06-19 19:24:00,77.4,68.5,29.99,ENE,69,0.0,7.0,74,0.00,,---,0.00,VWS V13.01,2013-06-19 23:24:00,
2013-06-19 19:25:00,77.4,68.5,29.99,ENE,68,0.0,7.0,74,0.00,,---,0.00,VWS V13.01,2013-06-19 23:25:00,
2013-06-19 19:26:00,77.4,68.5,29.99,ENE,69,0.0,7.0,74,0.00,,---,0.00,VWS V13.01,2013-06-19 23:26:00,
2013-06-19 19:27:00,77.4,68.5,29.99,ENE,69,0.0,7.0,74,0.00,,---,0.00,VWS V13.01,2013-06-19 23:27:00,
2013-06-19 19:30:00,77.3,68.8,30.00,ENE,74,0.0,7.0,75,0.00,,---,0.00,VWS V13.01,2013-06-19 23:30:00,
2013-06-19 19:31:00,77.3,68.8,30.00,ENE,78,0.0,7.0,75,0.00,,---,0.00,VWS V13.01,2013-06-19 23:31:00,
2013-06-19 19:32:00,77.2,68.3,30.00,ENE,67,0.0,5.0,74,0.00,,---,0.00,VWS V13.01,2013-06-19 23:32:00,
2013-06-19 19:35:00,77.1,68.2,30.00,ENE,68,0.0,5.0,74,0.00,,---,0.00,VWS V13.01,2013-06-19 23:35:00,
2013-06-19 19:36:00,77.1,68.2,30.00,ENE,68,0.0,5.0,74,0.00,,---,0.00,VWS V13.01,2013-06-19 23:36:00,
2013-06-19 19:37:00,77.1,68.6,30.00,East,85,0.0,5.0,75,0.00,,---,0.00,VWS V13.01,2013-06-19 23:37:00,
2013-06-19 19:40:00,76.9,68.4,30.00,ENE,74,0.0,5.0,75,0.00,,---,0.00,VWS V13.01,2013-06-19 23:40:00,
2013-06-19 19:41:00,76.9,68.4,30.00,ENE,74,0.0,5.0,75,0.00,,---,0.00,VWS V13.01,2013-06-19 23:41:00,
2013-06-19 19:42:00,76.8,68.3,30.00,ENE,60,0.0,5.0,75,0.00,,---,0.00,VWS V13.01,2013-06-19 23:42:00,
2013-06-19 19:45:00,76.7,68.2,30.00,ENE,61,0.0,5.0,75,0.00,,---,0.00,VWS V13.01,2013-06-19 23:45:00,
2013-06-19 19:46:00,76.7,68.2,30.00,ENE,60,0.0,5.0,75,0.00,,---,0.00,VWS V13.01,2013-06-19 23:46:00,
2013-06-19 19:47:00,76.7,68.2,30.00,ENE,61,0.0,5.0,75,0.00,,---,0.00,VWS V13.01,2013-06-19 23:47:00,
2013-06-19 19:51:00,76.6,68.5,30.00,ESE,107,0.0,5.0,76,0.00,,---,0.00,VWS V13.01,2013-06-19 23:51:00,
2013-06-19 19:52:00,76.5,68.4,30.00,ESE,106,0.0,5.0,76,0.00,,---,0.00,VWS V13.01,2013-06-19 23:52:00,
2013-06-19 19:53:00,76.5,68.4,30.00,ESE,103,0.0,5.0,76,0.00,,---,0.00,VWS V13.01,2013-06-19 23:53:00,
2013-06-19 19:56:00,76.4,68.3,30.00,East,98,0.0,5.0,76,0.00,,---,0.00,VWS V13.01,2013-06-19 23:56:00,
2013-06-19 19:57:00,76.4,68.3,30.00,East,98,0.0,5.0,76,0.00,,---,0.00,VWS V13.01,2013-06-19 23:57:00,
2013-06-19 19:58:00,76.3,68.2,30.00,NE,51,0.0,5.0,76,0.00,,---,0.00,VWS V13.01,2013-06-19 23:58:00,
2013-06-19 20:01:00,76.2,68.1,30.00,ESE,122,0.0,5.0,76,0.00,,---,0.00,VWS V13.01,2013-06-20 00:01:00,
2013-06-19 20:02:00,76.2,68.1,30.00,ESE,122,0.0,0.0,76,0.00,,---,0.00,VWS V13.01,2013-06-20 00:02:00,
2013-06-19 20:04:00,76.1,68.0,30.00,ENE,74,0.0,3.0,76,0.00,,---,0.00,VWS V13.01,2013-06-20 00:04:00,
2013-06-19 20:06:00,76.0,67.9,30.00,ENE,65,0.0,4.0,76,0.00,,---,0.00,VWS V13.01,2013-06-20 00:06:00,
2013-06-19 20:07:00,76.0,68.3,30.00,ENE,65,0.0,4.0,77,0.00,,---,0.00,VWS V13.01,2013-06-20 00:07:00,
2013-06-19 20:09:00,75.9,68.2,30.00,ENE,65,0.0,4.0,77,0.00,,---,0.00,VWS V13.01,2013-06-20 00:09:00,
2013-06-19 20:11:00,75.8,68.1,30.00,ENE,67,1.0,4.0,77,0.00,,---,0.00,VWS V13.01,2013-06-20 00:11:00,
2013-06-19 20:12:00,75.8,68.1,30.00,ENE,66,0.0,4.0,77,0.00,,---,0.00,VWS V13.01,2013-06-20 00:12:00,
2013-06-19 20:14:00,75.8,68.1,30.00,ENE,65,0.0,4.0,77,0.00,,---,0.00,VWS V13.01,2013-06-20 00:14:00,
2013-06-19 20:16:00,75.7,68.0,30.01,ENE,70,2.0,5.0,77,0.00,,---,0.00,VWS V13.01,2013-06-20 00:16:00,
2013-06-19 20:17:00,75.7,68.0,30.01,ENE,70,1.0,5.0,77,0.00,,---,0.00,VWS V13.01,2013-06-20 00:17:00,
2013-06-19 20:19:00,75.5,68.2,30.01,ENE,69,0.0,5.0,78,0.00,,---,0.00,VWS V13.01,2013-06-20 00:19:00,
2013-06-19 20:21:00,75.5,68.2,30.01,ENE,65,4.0,5.0,78,0.00,,---,0.00,VWS V13.01,2013-06-20 00:21:00,
2013-06-19 20:22:00,75.4,68.1,30.01,ENE,65,0.0,5.0,78,0.00,,---,0.00,VWS V13.01,2013-06-20 00:22:00,
2013-06-19 20:24:00,75.4,68.1,30.01,ENE,65,0.0,5.0,78,0.00,,---,0.00,VWS V13.01,2013-06-20 00:24:00,
2013-06-19 20:26:00,75.3,68.0,30.01,ENE,65,1.0,5.0,78,0.00,,---,0.00,VWS V13.01,2013-06-20 00:26:00,
2013-06-19 20:27:00,75.3,68.0,30.01,ENE,65,0.0,5.0,78,0.00,,---,0.00,VWS V13.01,2013-06-20 00:27:00,
2013-06-19 20:29:00,75.2,67.9,30.01,ENE,65,0.0,5.0,78,0.00,,---,0.00,VWS V13.01,2013-06-20 00:29:00,
2013-06-19 20:31:00,75.1,67.8,30.01,ENE,67,0.0,1.0,78,0.00,,---,0.00,VWS V13.01,2013-06-20 00:31:00,
2013-06-19 20:32:00,75.1,67.8,30.01,NE,42,5.0,6.0,78,0.00,,---,0.00,VWS V13.01,2013-06-20 00:32:00,
2013-06-19 20:33:00,75.1,67.8,30.01,NE,43,1.0,6.0,78,0.00,,---,0.00,VWS V13.01,2013-06-20 00:33:00,
2013-06-19 20:34:00,75.0,67.7,30.01,NE,46,0.0,6.0,78,0.00,,---,0.00,VWS V13.01,2013-06-20 00:34:00,
2013-06-19 20:36:00,74.9,67.6,30.01,NE,46,0.0,6.0,78,0.00,,---,0.00,VWS V13.01,2013-06-20 00:36:00,
2013-06-19 20:38:00,74.9,67.6,30.01,NE,46,0.0,6.0,78,0.00,,---,0.00,VWS V13.01,2013-06-20 00:38:00,
2013-06-19 20:40:00,74.8,67.5,30.01,NE,46,0.0,6.0,78,0.00,,---,0.00,VWS V13.01,2013-06-20 00:40:00,
2013-06-19 20:41:00,74.8,67.9,30.01,NE,46,0.0,6.0,79,0.00,,---,0.00,VWS V13.01,2013-06-20 00:41:00,
2013-06-19 20:43:00,74.8,67.9,30.01,NE,46,0.0,6.0,79,0.00,,---,0.00,VWS V13.01,2013-06-20 00:43:00,
2013-06-19 20:45:00,74.7,67.8,30.01,NE,46,0.0,6.0,79,0.00,,---,0.00,VWS V13.01,2013-06-20 00:45:00,
2013-06-19 20:46:00,74.6,67.7,30.01,NE,46,0.0,6.0,79,0.00,,---,0.00,VWS V13.01,2013-06-20 00:46:00,
2013-06-19 20:48:00,74.6,67.7,30.01,NE,46,0.0,6.0,79,0.00,,---,0.00,VWS V13.01,2013-06-20 00:48:00,
2013-06-19 20:50:00,74.5,67.6,30.01,NE,46,0.0,6.0,79,0.00,,---,0.00,VWS V13.01,2013-06-20 00:50:00,
2013-06-19 20:52:00,74.5,67.6,30.01,NE,46,1.0,6.0,79,0.00,,---,0.00,VWS V13.01,2013-06-20 00:52:00,
2013-06-19 20:53:00,74.4,67.8,30.01,NE,46,0.0,6.0,80,0.00,,---,0.00,VWS V13.01,2013-06-20 00:53:00,
2013-06-19 20:54:00,74.4,67.8,30.01,NE,46,0.0,6.0,80,0.00,,---,0.00,VWS V13.01,2013-06-20 00:54:00,
2013-06-19 20:55:00,74.3,67.7,30.01,NE,46,0.0,6.0,80,0.00,,---,0.00,VWS V13.01,2013-06-20 00:55:00,
2013-06-19 20:57:00,74.2,67.6,30.01,NE,49,0.0,6.0,80,0.00,,---,0.00,VWS V13.01,2013-06-20 00:57:00,
2013-06-19 20:58:00,74.2,67.6,30.01,NE,49,0.0,6.0,80,0.00,,---,0.00,VWS V13.01,2013-06-20 00:58:00,
2013-06-19 20:59:00,74.2,67.6,30.01,NE,49,0.0,6.0,80,0.00,,---,0.00,VWS V13.01,2013-06-20 00:59:00,
2013-06-19 21:00:00,74.1,67.5,30.01,NE,51,0.0,6.0,80,0.00,,---,0.00,VWS V13.01,2013-06-20 01:00:00,
2013-06-19 21:02:00,74.0,67.4,30.01,NE,51,0.0,0.0,80,0.00,,---,0.00,VWS V13.01,2013-06-20 01:02:00,
2013-06-19 21:03:00,74.0,67.4,30.01,NE,51,0.0,1.0,80,0.00,,---,0.00,VWS V13.01,2013-06-20 01:03:00,
2013-06-19 21:04:00,74.0,67.4,30.01,NE,51,0.0,1.0,80,0.00,,---,0.00,VWS V13.01,2013-06-20 01:04:00,
2013-06-19 21:05:00,73.9,67.7,30.01,NE,51,0.0,1.0,81,0.00,,---,0.00,VWS V13.01,2013-06-20 01:05:00,
2013-06-19 21:07:00,73.9,67.7,30.01,NE,51,0.0,1.0,81,0.00,,---,0.00,VWS V13.01,2013-06-20 01:07:00,
2013-06-19 21:08:00,73.8,67.6,30.01,NE,51,0.0,1.0,81,0.00,,---,0.00,VWS V13.01,2013-06-20 01:08:00,
2013-06-19 21:09:00,73.8,67.6,30.01,NE,51,0.0,1.0,81,0.00,,---,0.00,VWS V13.01,2013-06-20 01:09:00,
2013-06-19 21:10:00,73.7,67.5,30.01,NE,51,0.0,1.0,81,0.00,,---,0.00,VWS V13.01,2013-06-20 01:10:00,
2013-06-19 21:12:00,73.7,67.5,30.01,NE,51,0.0,1.0,81,0.00,,---,0.00,VWS V13.01,2013-06-20 01:12:00,
2013-06-19 21:13:00,73.6,67.4,30.01,NE,51,0.0,1.0,81,0.00,,---,0.00,VWS V13.01,2013-06-20 01:13:00,
2013-06-19 21:14:00,73.6,67.4,30.01,NE,51,0.0,1.0,81,0.00,,---,0.00,VWS V13.01,2013-06-20 01:14:00,
2013-06-19 21:16:00,73.5,67.3,30.01,NE,51,0.0,2.0,81,0.00,,---,0.00,VWS V13.01,2013-06-20 01:16:00,
2013-06-19 21:17:00,73.5,67.3,30.01,NE,51,3.0,4.0,81,0.00,,---,0.00,VWS V13.01,2013-06-20 01:17:00,
2013-06-19 21:18:00,73.4,67.2,30.01,East,80,0.0,5.0,81,0.00,,---,0.00,VWS V13.01,2013-06-20 01:18:00,
2013-06-19 21:19:00,73.4,67.2,30.01,East,80,0.0,5.0,81,0.00,,---,0.00,VWS V13.01,2013-06-20 01:19:00,
2013-06-19 21:21:00,73.3,67.5,30.02,East,80,0.0,5.0,82,0.00,,---,0.00,VWS V13.01,2013-06-20 01:21:00,
2013-06-19 21:22:00,73.3,67.5,30.02,East,80,0.0,5.0,82,0.00,,---,0.00,VWS V13.01,2013-06-20 01:22:00,
2013-06-19 21:24:00,73.2,67.4,30.02,East,80,0.0,5.0,82,0.00,,---,0.00,VWS V13.01,2013-06-20 01:24:00,
2013-06-19 21:25:00,73.2,67.4,30.02,East,80,0.0,5.0,82,0.00,,---,0.00,VWS V13.01,2013-06-20 01:25:00,
2013-06-19 21:26:00,73.1,67.3,30.02,ENE,71,2.0,5.0,82,0.00,,---,0.00,VWS V13.01,2013-06-20 01:26:00,
2013-06-19 21:28:00,73.1,67.3,30.03,ENE,71,0.0,5.0,82,0.00,,---,0.00,VWS V13.01,2013-06-20 01:28:00,
2013-06-19 21:29:00,73.0,67.2,30.03,ENE,71,0.0,5.0,82,0.00,,---,0.00,VWS V13.01,2013-06-20 01:29:00,
2013-06-19 21:30:00,73.0,67.2,30.03,ENE,71,0.0,5.0,82,0.00,,---,0.00,VWS V13.01,2013-06-20 01:30:00,
2013-06-19 21:31:00,73.0,67.2,30.03,ENE,71,0.0,5.0,82,0.00,,---,0.00,VWS V13.01,2013-06-20 01:31:00,
2013-06-19 21:33:00,72.9,67.1,30.03,ENE,71,0.0,0.0,82,0.00,,---,0.00,VWS V13.01,2013-06-20 01:33:00,
2013-06-19 21:34:00,72.9,67.1,30.03,ENE,71,0.0,3.0,82,0.00,,---,0.00,VWS V13.01,2013-06-20 01:34:00,
2013-06-19 21:35:00,72.9,67.1,30.03,ENE,71,0.0,3.0,82,0.00,,---,0.00,VWS V13.01,2013-06-20 01:35:00,
2013-06-19 21:36:00,72.8,67.0,30.03,East,88,0.0,3.0,82,0.00,,---,0.00,VWS V13.01,2013-06-20 01:36:00,
2013-06-19 21:38:00,72.7,67.2,30.03,East,88,0.0,3.0,83,0.00,,---,0.00,VWS V13.01,2013-06-20 01:38:00,
2013-06-19 21:39:00,72.7,67.2,30.03,East,87,0.0,3.0,83,0.00,,---,0.00,VWS V13.01,2013-06-20 01:39:00,
2013-06-19 21:40:00,72.6,67.2,30.03,East,84,0.0,3.0,83,0.00,,---,0.00,VWS V13.01,2013-06-20 01:40:00,
2013-06-19 21:41:00,72.6,67.2,30.03,East,85,0.0,3.0,83,0.00,,---,0.00,VWS V13.01,2013-06-20 01:41:00,
2013-06-19 21:43:00,72.5,67.1,30.03,ENE,74,2.0,3.0,83,0.00,,---,0.00,VWS V13.01,2013-06-20 01:43:00,
2013-06-19 21:44:00,72.5,67.1,30.03,ENE,74,0.0,3.0,83,0.00,,---,0.00,VWS V13.01,2013-06-20 01:44:00,
2013-06-19 21:45:00,72.4,66.9,30.03,ENE,74,0.0,3.0,83,0.00,,---,0.00,VWS V13.01,2013-06-20 01:45:00,
2013-06-19 21:46:00,72.4,66.9,30.03,ENE,74,0.0,3.0,83,0.00,,---,0.00,VWS V13.01,2013-06-20 01:46:00,
2013-06-19 21:48:00,72.3,66.8,30.03,ENE,74,0.0,3.0,83,0.00,,---,0.00,VWS V13.01,2013-06-20 01:48:00,
2013-06-19 21:49:00,72.3,67.2,30.03,ENE,74,0.0,3.0,84,0.00,,---,0.00,VWS V13.01,2013-06-20 01:49:00,
2013-06-19 21:50:00,72.2,67.1,30.03,ENE,74,0.0,3.0,84,0.00,,---,0.00,VWS V13.01,2013-06-20 01:50:00,
2013-06-19 21:51:00,72.2,67.1,30.03,ENE,74,0.0,3.0,84,0.00,,---,0.00,VWS V13.01,2013-06-20 01:51:00,
2013-06-19 21:53:00,72.1,67.0,30.03,ENE,74,0.0,3.0,84,0.00,,---,0.00,VWS V13.01,2013-06-20 01:53:00,
2013-06-19 21:54:00,72.1,67.0,30.03,ENE,74,0.0,3.0,84,0.00,,---,0.00,VWS V13.01,2013-06-20 01:54:00,
2013-06-19 21:55:00,72.1,67.0,30.03,ENE,74,0.0,3.0,84,0.00,,---,0.00,VWS V13.01,2013-06-20 01:55:00,
2013-06-19 21:56:00,72.0,66.9,30.03,ENE,74,0.0,3.0,84,0.00,,---,0.00,VWS V13.01,2013-06-20 01:56:00,
2013-06-19 21:59:00,71.9,66.8,30.03,ENE,74,0.0,3.0,84,0.00,,---,0.00,VWS V13.01,2013-06-20 01:59:00,
2013-06-19 22:00:00,71.9,66.8,30.04,ENE,74,0.0,3.0,84,0.00,,---,0.00,VWS V13.01,2013-06-20 02:00:00,
2013-06-19 22:01:00,71.9,66.8,30.04,ENE,74,0.0,3.0,84,0.00,,---,0.00,VWS V13.01,2013-06-20 02:01:00,
2013-06-19 22:02:00,71.8,66.7,30.04,ENE,74,0.0,0.0,84,0.00,,---,0.00,VWS V13.01,2013-06-20 02:02:00,
2013-06-19 22:04:00,71.7,66.9,30.04,ENE,71,0.0,4.0,85,0.00,,---,0.00,VWS V13.01,2013-06-20 02:04:00,
2013-06-19 22:05:00,71.7,66.9,30.04,ENE,71,1.0,4.0,85,0.00,,---,0.00,VWS V13.01,2013-06-20 02:05:00,
2013-06-19 22:06:00,71.7,66.9,30.04,ENE,72,0.0,4.0,85,0.00,,---,0.00,VWS V13.01,2013-06-20 02:06:00,
2013-06-19 22:07:00,71.6,66.9,30.04,ENE,72,0.0,4.0,85,0.00,,---,0.00,VWS V13.01,2013-06-20 02:07:00,
2013-06-19 22:09:00,71.6,66.9,30.04,ENE,72,0.0,4.0,85,0.00,,---,0.00,VWS V13.01,2013-06-20 02:09:00,
2013-06-19 22:10:00,71.5,66.8,30.04,ENE,72,0.0,4.0,85,0.00,,---,0.00,VWS V13.01,2013-06-20 02:10:00,
2013-06-19 22:11:00,71.5,66.8,30.04,ENE,71,0.0,4.0,85,0.00,,---,0.00,VWS V13.01,2013-06-20 02:11:00,
2013-06-19 22:12:00,71.5,66.8,30.04,ENE,72,0.0,4.0,85,0.00,,---,0.00,VWS V13.01,2013-06-20 02:12:00,
2013-06-19 22:14:00,71.4,66.7,30.04,ENE,72,0.0,4.0,85,0.00,,---,0.00,VWS V13.01,2013-06-20 02:14:00,
2013-06-19 22:15:00,71.4,66.7,30.04,ENE,72,0.0,4.0,85,0.00,,---,0.00,VWS V13.01,2013-06-20 02:15:00,
2013-06-19 22:16:00,71.3,66.6,30.04,ENE,72,1.0,4.0,85,0.00,,---,0.00,VWS V13.01,2013-06-20 02:16:00,
2013-06-19 22:17:00,71.3,66.6,30.04,ENE,72,0.0,4.0,85,0.00,,---,0.00,VWS V13.01,2013-06-20 02:17:00,
2013-06-19 22:19:00,71.3,66.6,30.04,ENE,71,0.0,4.0,85,0.00,,---,0.00,VWS V13.01,2013-06-20 02:19:00,
2013-06-19 22:20:00,71.3,66.6,30.04,ENE,72,0.0,4.0,85,0.00,,---,0.00,VWS V13.01,2013-06-20 02:20:00,
2013-06-19 22:22:00,71.2,66.5,30.04,ENE,71,0.0,4.0,85,0.00,,---,0.00,VWS V13.01,2013-06-20 02:22:00,
2013-06-19 22:24:00,71.1,66.4,30.04,ENE,72,0.0,4.0,85,0.00,,---,0.00,VWS V13.01,2013-06-20 02:24:00,
2013-06-19 22:25:00,71.1,66.4,30.04,ENE,71,0.0,4.0,85,0.00,,---,0.00,VWS V13.01,2013-06-20 02:25:00,
2013-06-19 22:27:00,71.1,66.4,30.05,ENE,72,0.0,4.0,85,0.00,,---,0.00,VWS V13.01,2013-06-20 02:27:00,
2013-06-19 22:28:00,71.1,66.4,30.05,ENE,72,0.0,4.0,85,0.00,,---,0.00,VWS V13.01,2013-06-20 02:28:00,
2013-06-19 22:30:00,71.0,66.3,30.05,ENE,71,0.0,4.0,85,0.00,,---,0.00,VWS V13.01,2013-06-20 02:30:00,
2013-06-19 22:32:00,70.9,66.2,30.05,ENE,72,0.0,0.0,85,0.00,,---,0.00,VWS V13.01,2013-06-20 02:32:00,
2013-06-19 22:33:00,70.9,66.5,30.05,ENE,72,0.0,0.0,86,0.00,,---,0.00,VWS V13.01,2013-06-20 02:33:00,
2013-06-19 22:35:00,70.8,66.4,30.05,ENE,72,0.0,1.0,86,0.00,,---,0.00,VWS V13.01,2013-06-20 02:35:00,
2013-06-19 22:36:00,70.8,66.4,30.05,ENE,72,0.0,1.0,86,0.00,,---,0.00,VWS V13.01,2013-06-20 02:36:00,
2013-06-19 22:37:00,70.8,66.4,30.05,ENE,72,0.0,1.0,86,0.00,,---,0.00,VWS V13.01,2013-06-20 02:37:00,
2013-06-19 22:38:00,70.8,66.4,30.05,ENE,72,0.0,1.0,86,0.00,,---,0.00,VWS V13.01,2013-06-20 02:38:00,
2013-06-19 22:40:00,70.7,66.3,30.05,ENE,72,0.0,1.0,86,0.00,,---,0.00,VWS V13.01,2013-06-20 02:40:00,
2013-06-19 22:41:00,70.7,66.3,30.05,ENE,72,0.0,1.0,86,0.00,,---,0.00,VWS V13.01,2013-06-20 02:41:00,
2013-06-19 22:42:00,70.6,66.2,30.05,ENE,72,0.0,1.0,86,0.00,,---,0.00,VWS V13.01,2013-06-20 02:42:00,
2013-06-19 22:43:00,70.6,66.2,30.05,ENE,72,0.0,1.0,86,0.00,,---,0.00,VWS V13.01,2013-06-20 02:43:00,
2013-06-19 22:45:00,70.6,66.2,30.05,ENE,71,0.0,3.0,86,0.00,,---,0.00,VWS V13.01,2013-06-20 02:45:00,
2013-06-19 22:46:00,70.6,66.2,30.05,ENE,71,0.0,3.0,86,0.00,,---,0.00,VWS V13.01,2013-06-20 02:46:00,
2013-06-19 22:47:00,70.5,66.4,30.05,ESE,121,0.0,5.0,87,0.00,,---,0.00,VWS V13.01,2013-06-20 02:47:00,
2013-06-19 22:48:00,70.5,66.4,30.05,ESE,121,0.0,5.0,87,0.00,,---,0.00,VWS V13.01,2013-06-20 02:48:00,
2013-06-19 22:50:00,70.4,66.3,30.05,ESE,121,0.0,5.0,87,0.00,,---,0.00,VWS V13.01,2013-06-20 02:50:00,
2013-06-19 22:51:00,70.4,66.3,30.05,ESE,120,0.0,5.0,87,0.00,,---,0.00,VWS V13.01,2013-06-20 02:51:00,
2013-06-19 22:53:00,70.4,66.3,30.05,ESE,119,0.0,5.0,87,0.00,,---,0.00,VWS V13.01,2013-06-20 02:53:00,
2013-06-19 22:55:00,70.3,66.2,30.05,East,95,0.0,5.0,87,0.00,,---,0.00,VWS V13.01,2013-06-20 02:55:00,
2013-06-19 22:56:00,70.3,66.6,30.05,East,95,0.0,5.0,88,0.00,,---,0.00,VWS V13.01,2013-06-20 02:56:00,
2013-06-19 22:58:00,70.3,66.6,30.05,East,95,0.0,5.0,88,0.00,,---,0.00,VWS V13.01,2013-06-20 02:58:00,
2013-06-19 23:01:00,70.2,66.5,30.06,ENE,77,0.0,5.0,88,0.00,,---,0.00,VWS V13.01,2013-06-20 03:01:00,
2013-06-19 23:02:00,70.2,66.5,30.06,ESE,113,1.0,1.0,88,0.00,,---,0.00,VWS V13.01,2013-06-20 03:02:00,
2013-06-19 23:03:00,70.2,66.5,30.06,ESE,109,0.0,2.0,88,0.00,,---,0.00,VWS V13.01,2013-06-20 03:03:00,
2013-06-19 23:06:00,70.2,66.5,30.06,East,87,2.0,2.0,88,0.00,,---,0.00,VWS V13.01,2013-06-20 03:06:00,
2013-06-19 23:07:00,70.2,66.5,30.06,East,96,0.0,3.0,88,0.00,,---,0.00,VWS V13.01,2013-06-20 03:07:00,
2013-06-19 23:08:00,70.1,66.4,30.06,East,92,0.0,3.0,88,0.00,,---,0.00,VWS V13.01,2013-06-20 03:08:00,
2013-06-19 23:11:00,70.1,66.4,30.06,East,92,0.0,3.0,88,0.00,,---,0.00,VWS V13.01,2013-06-20 03:11:00,
2013-06-19 23:12:00,70.1,66.4,30.06,East,92,0.0,3.0,88,0.00,,---,0.00,VWS V13.01,2013-06-20 03:12:00,
2013-06-19 23:13:00,70.1,66.4,30.06,East,92,0.0,3.0,88,0.00,,---,0.00,VWS V13.01,2013-06-20 03:13:00,
2013-06-19 23:16:00,70.0,66.3,30.06,East,92,0.0,3.0,88,0.00,,---,0.00,VWS V13.01,2013-06-20 03:16:00,
2013-06-19 23:17:00,70.0,66.3,30.06,East,92,0.0,3.0,88,0.00,,---,0.00,VWS V13.01,2013-06-20 03:17:00,
2013-06-19 23:18:00,70.0,66.3,30.06,East,92,0.0,3.0,88,0.00,,---,0.00,VWS V13.01,2013-06-20 03:18:00,
2013-06-19 23:19:00,70.0,66.3,30.06,East,92,0.0,3.0,88,0.00,,---,0.00,VWS V13.01,2013-06-20 03:19:00,
2013-06-19 23:21:00,69.9,66.2,30.06,East,91,0.0,3.0,88,0.00,,---,0.00,VWS V13.01,2013-06-20 03:21:00,
2013-06-19 23:22:00,69.9,66.2,30.06,East,92,0.0,3.0,88,0.00,,---,0.00,VWS V13.01,2013-06-20 03:22:00,
2013-06-19 23:23:00,69.9,66.2,30.06,East,92,0.0,3.0,88,0.00,,---,0.00,VWS V13.01,2013-06-20 03:23:00,
2013-06-19 23:24:00,69.9,66.2,30.06,East,92,0.0,3.0,88,0.00,,---,0.00,VWS V13.01,2013-06-20 03:24:00,
2013-06-19 23:26:00,69.9,66.2,30.06,East,92,0.0,3.0,88,0.00,,---,0.00,VWS V13.01,2013-06-20 03:26:00,
2013-06-19 23:27:00,69.8,66.1,30.06,East,92,0.0,3.0,88,0.00,,---,0.00,VWS V13.01,2013-06-20 03:27:00,
2013-06-19 23:28:00,69.8,66.1,30.06,East,92,0.0,3.0,88,0.00,,---,0.00,VWS V13.01,2013-06-20 03:28:00,
2013-06-19 23:29:00,69.8,66.1,30.06,East,92,0.0,3.0,88,0.00,,---,0.00,VWS V13.01,2013-06-20 03:29:00,
2013-06-19 23:31:00,69.7,66.0,30.06,East,91,0.0,0.0,88,0.00,,---,0.00,VWS V13.01,2013-06-20 03:31:00,
2013-06-19 23:32:00,69.7,66.0,30.06,East,92,0.0,0.0,88,0.00,,---,0.00,VWS V13.01,2013-06-20 03:32:00,
2013-06-19 23:34:00,69.7,66.0,30.06,East,91,0.0,0.0,88,0.00,,---,0.00,VWS V13.01,2013-06-20 03:34:00,
2013-06-19 23:37:00,69.6,65.9,30.06,East,92,0.0,1.0,88,0.00,,---,0.00,VWS V13.01,2013-06-20 03:37:00,
2013-06-19 23:38:00,69.6,65.9,30.06,East,92,0.0,1.0,88,0.00,,---,0.00,VWS V13.01,2013-06-20 03:38:00,
2013-06-19 23:39:00,69.6,65.9,30.06,East,91,0.0,1.0,88,0.00,,---,0.00,VWS V13.01,2013-06-20 03:39:00,
2013-06-19 23:42:00,69.5,65.8,30.06,East,92,0.0,1.0,88,0.00,,---,0.00,VWS V13.01,2013-06-20 03:42:00,
2013-06-19 23:44:00,69.5,65.8,30.06,East,91,0.0,1.0,88,0.00,,---,0.00,VWS V13.01,2013-06-20 03:44:00,
2013-06-19 23:47:00,69.4,65.7,30.06,East,92,0.0,1.0,88,0.00,,---,0.00,VWS V13.01,2013-06-20 03:47:00,
2013-06-19 23:49:00,69.4,65.7,30.06,East,92,0.0,1.0,88,0.00,,---,0.00,VWS V13.01,2013-06-20 03:49:00,
2013-06-19 23:52:00,69.3,65.6,30.06,East,92,0.0,1.0,88,0.00,,---,0.00,VWS V13.01,2013-06-20 03:52:00,
2013-06-19 23:53:00,69.3,65.9,30.06,East,92,0.0,1.0,89,0.00,,---,0.00,VWS V13.01,2013-06-20 03:53:00,
2013-06-19 23:54:00,69.2,65.8,30.07,East,92,0.0,1.0,89,0.00,,---,0.00,VWS V13.01,2013-06-20 03:54:00,
2013-06-19 23:55:00,69.2,65.8,30.07,East,92,0.0,1.0,89,0.00,,---,0.00,VWS V13.01,2013-06-20 03:55:00,
2013-06-19 23:57:00,69.2,65.8,30.07,East,92,0.0,1.0,89,0.00,,---,0.00,VWS V13.01,2013-06-20 03:57:00,
2013-06-19 23:58:00,69.1,65.7,30.07,East,91,0.0,1.0,89,0.00,,---,0.00,VWS V13.01,2013-06-20 03:58:00,
2013-06-19 23:59:00,69.1,65.7,30.07,East,92,0.0,1.0,89,0.00,,---,0.00,VWS V13.01,2013-06-20 03:59:00,